Time,TemperatureF,DewpointF,PressureIn,WindDirection,WindDirectionDegrees,WindSpeedMPH,WindSpeedGustMPH,Humidity,HourlyPrecipIn,Conditions,Clouds,dailyrainin,SoftwareType,DateUTC
2013-01-12 00:00:00,50.8,47.1,29.67,South,176,9.0,9.0,87,0.00,,,0.29,Wunderground v.1.15,2013-01-12 06:00:00,
2013-01-12 00:01:00,50.8,47.1,29.67,SSW,205,9.0,13.0,87,0.00,,,0.00,Wunderground v.1.15,2013-01-12 06:01:00,
2013-01-12 00:02:00,50.7,47.0,29.67,South,177,9.0,13.0,87,0.00,,,0.00,Wunderground v.1.15,2013-01-12 06:02:00,
2013-01-12 00:05:00,50.7,47.0,29.67,South,190,9.0,13.0,87,0.00,,,0.00,Wunderground v.1.15,2013-01-12 06:05:00,
2013-01-12 00:06:00,50.7,47.0,29.67,SSW,205,9.0,13.0,87,0.00,,,0.00,Wunderground v.1.15,2013-01-12 06:06:00,
2013-01-12 00:07:00,50.7,47.0,29.67,South,178,9.0,13.0,87,0.00,,,0.00,Wunderground v.1.15,2013-01-12 06:07:00,
2013-01-12 00:09:00,50.6,46.9,29.66,SSW,212,10.0,13.0,87,0.00,,,0.00,Wunderground v.1.15,2013-01-12 06:09:00,
2013-01-12 00:11:00,50.6,46.9,29.66,SSW,202,9.0,13.0,87,0.00,,,0.00,Wunderground v.1.15,2013-01-12 06:11:00,
2013-01-12 00:13:00,50.6,46.9,29.66,SSW,204,9.0,13.0,87,0.00,,,0.00,Wunderground v.1.15,2013-01-12 06:13:00,
2013-01-12 00:16:00,50.5,47.1,29.66,South,175,10.0,14.0,88,0.00,,,0.00,Wunderground v.1.15,2013-01-12 06:16:00,
2013-01-12 00:18:00,50.5,47.1,29.67,SSW,202,10.0,16.0,88,0.00,,,0.00,Wunderground v.1.15,2013-01-12 06:18:00,
2013-01-12 00:19:00,50.5,47.1,29.67,SSW,200,10.0,16.0,88,0.00,,,0.00,Wunderground v.1.15,2013-01-12 06:19:00,
2013-01-12 00:20:00,50.5,47.1,29.67,South,190,11.0,11.0,88,0.00,,,0.00,Wunderground v.1.15,2013-01-12 06:20:00,
2013-01-12 00:24:00,50.5,47.1,29.67,SSW,202,10.0,11.0,88,0.00,,,0.00,Wunderground v.1.15,2013-01-12 06:24:00,
2013-01-12 00:25:00,50.5,47.1,29.66,South,191,10.0,11.0,88,0.00,,,0.00,Wunderground v.1.15,2013-01-12 06:25:00,
2013-01-12 00:26:00,50.5,47.1,29.66,South,190,10.0,11.0,88,0.00,,,0.00,Wunderground v.1.15,2013-01-12 06:26:00,
2013-01-12 00:28:00,50.5,47.1,29.66,South,190,9.0,13.0,88,0.00,,,0.00,Wunderground v.1.15,2013-01-12 06:28:00,
2013-01-12 00:31:00,50.5,47.1,29.67,South,180,9.0,15.0,88,0.00,,,0.00,Wunderground v.1.15,2013-01-12 06:31:00,
2013-01-12 00:32:00,50.5,47.1,29.67,SSW,194,9.0,15.0,88,0.00,,,0.00,Wunderground v.1.15,2013-01-12 06:32:00,
2013-01-12 00:37:00,50.5,47.1,29.67,SSE,165,10.0,15.0,88,0.00,,,0.00,Wunderground v.1.15,2013-01-12 06:37:00,
2013-01-12 00:38:00,50.5,46.8,29.67,SSW,202,10.0,15.0,87,0.00,,,0.00,Wunderground v.1.15,2013-01-12 06:38:00,
2013-01-12 00:40:00,50.5,47.1,29.67,SSW,201,10.0,10.0,88,0.00,,,0.00,Wunderground v.1.15,2013-01-12 06:40:00,
2013-01-12 00:42:00,50.5,47.1,29.67,SSW,201,10.0,12.0,88,0.00,,,0.00,Wunderground v.1.15,2013-01-12 06:42:00,
2013-01-12 00:45:00,50.5,47.1,29.67,South,183,11.0,13.0,88,0.00,,,0.00,Wunderground v.1.15,2013-01-12 06:45:00,
2013-01-12 00:46:00,50.5,47.1,29.67,SSW,200,11.0,15.0,88,0.00,,,0.00,Wunderground v.1.15,2013-01-12 06:46:00,
2013-01-12 00:48:00,50.5,47.1,29.67,SSW,205,11.0,15.0,88,0.00,,,0.00,Wunderground v.1.15,2013-01-12 06:48:00,
2013-01-12 00:50:00,50.5,47.1,29.67,South,182,11.0,11.0,88,0.00,,,0.00,Wunderground v.1.15,2013-01-12 06:50:00,
2013-01-12 00:51:00,50.5,46.8,29.67,SSW,213,11.0,14.0,87,0.00,,,0.00,Wunderground v.1.15,2013-01-12 06:51:00,
2013-01-12 00:53:00,50.5,46.8,29.67,South,189,11.0,15.0,87,0.00,,,0.00,Wunderground v.1.15,2013-01-12 06:53:00,
2013-01-12 00:56:00,50.5,46.8,29.67,South,181,11.0,15.0,87,0.00,,,0.00,Wunderground v.1.15,2013-01-12 06:56:00,
2013-01-12 00:57:00,50.5,46.8,29.67,SSW,192,11.0,15.0,87,0.00,,,0.00,Wunderground v.1.15,2013-01-12 06:57:00,
2013-01-12 00:58:00,50.5,46.8,29.67,South,188,11.0,15.0,87,0.00,,,0.00,Wunderground v.1.15,2013-01-12 06:58:00,
2013-01-12 01:04:00,50.5,46.8,29.68,SSW,192,10.0,12.0,87,0.00,,,0.00,Wunderground v.1.15,2013-01-12 07:04:00,
2013-01-12 01:05:00,50.4,46.7,29.68,South,187,10.0,12.0,87,0.00,,,0.00,Wunderground v.1.15,2013-01-12 07:05:00,
2013-01-12 01:07:00,50.4,46.7,29.68,SSW,199,9.0,12.0,87,0.00,,,0.00,Wunderground v.1.15,2013-01-12 07:07:00,
2013-01-12 01:10:00,50.4,46.7,29.68,South,178,9.0,9.0,87,0.00,,,0.00,Wunderground v.1.15,2013-01-12 07:10:00,
2013-01-12 01:11:00,50.4,46.7,29.68,South,180,9.0,11.0,87,0.00,,,0.00,Wunderground v.1.15,2013-01-12 07:11:00,
2013-01-12 01:13:00,50.4,46.7,29.68,South,184,9.0,11.0,87,0.00,,,0.00,Wunderground v.1.15,2013-01-12 07:13:00,
2013-01-12 01:15:00,50.4,46.7,29.68,South,190,10.0,11.0,87,0.00,,,0.00,Wunderground v.1.15,2013-01-12 07:15:00,
2013-01-12 01:16:00,50.4,46.7,29.68,SSW,192,10.0,11.0,87,0.00,,,0.00,Wunderground v.1.15,2013-01-12 07:16:00,
2013-01-12 01:20:00,50.5,46.8,29.68,South,181,10.0,10.0,87,0.00,,,0.00,Wunderground v.1.15,2013-01-12 07:20:00,
2013-01-12 01:22:00,50.5,46.8,29.68,South,183,10.0,11.0,87,0.00,,,0.00,Wunderground v.1.15,2013-01-12 07:22:00,
2013-01-12 01:23:00,50.6,46.9,29.68,SSW,198,9.0,11.0,87,0.00,,,0.00,Wunderground v.1.15,2013-01-12 07:23:00,
2013-01-12 01:25:00,50.6,46.9,29.68,SSW,197,9.0,14.0,87,0.00,,,0.00,Wunderground v.1.15,2013-01-12 07:25:00,
2013-01-12 01:27:00,50.6,46.9,29.68,SSE,165,10.0,15.0,87,0.00,,,0.00,Wunderground v.1.15,2013-01-12 07:27:00,
2013-01-12 01:28:00,50.7,47.0,29.68,South,189,10.0,15.0,87,0.00,,,0.00,Wunderground v.1.15,2013-01-12 07:28:00,
2013-01-12 01:31:00,50.8,46.8,29.68,SSW,194,9.0,10.0,86,0.00,,,0.00,Wunderground v.1.15,2013-01-12 07:31:00,
2013-01-12 01:32:00,50.9,46.9,29.68,SSW,194,9.0,10.0,86,0.00,,,0.00,Wunderground v.1.15,2013-01-12 07:32:00,
2013-01-12 01:33:00,50.9,46.9,29.68,South,191,10.0,10.0,86,0.00,,,0.00,Wunderground v.1.15,2013-01-12 07:33:00,
2013-01-12 01:35:00,50.9,46.9,29.68,SSW,198,10.0,10.0,86,0.00,,,0.00,Wunderground v.1.15,2013-01-12 07:35:00,
2013-01-12 01:37:00,50.9,46.9,29.68,SSW,202,9.0,14.0,86,0.00,,,0.00,Wunderground v.1.15,2013-01-12 07:37:00,
2013-01-12 01:40:00,50.9,46.9,29.68,SW,215,10.0,13.0,86,0.00,,,0.00,Wunderground v.1.15,2013-01-12 07:40:00,
2013-01-12 01:41:00,50.9,46.9,29.68,SSW,198,10.0,13.0,86,0.00,,,0.00,Wunderground v.1.15,2013-01-12 07:41:00,
2013-01-12 01:46:00,50.8,46.8,29.69,SSW,195,10.0,13.0,86,0.00,,,0.00,Wunderground v.1.15,2013-01-12 07:46:00,
2013-01-12 01:47:00,50.8,46.8,29.69,South,180,10.0,13.0,86,0.00,,,0.00,Wunderground v.1.15,2013-01-12 07:47:00,
2013-01-12 01:48:00,50.8,46.8,29.68,SSW,206,10.0,13.0,86,0.00,,,0.00,Wunderground v.1.15,2013-01-12 07:48:00,
2013-01-12 01:49:00,50.8,46.8,29.68,South,188,10.0,13.0,86,0.00,,,0.00,Wunderground v.1.15,2013-01-12 07:49:00,
2013-01-12 01:51:00,50.7,46.7,29.69,SSW,193,8.0,12.0,86,0.00,,,0.00,Wunderground v.1.15,2013-01-12 07:51:00,
2013-01-12 01:54:00,50.6,46.6,29.68,South,188,8.0,12.0,86,0.00,,,0.00,Wunderground v.1.15,2013-01-12 07:54:00,
2013-01-12 01:55:00,50.6,46.9,29.68,South,171,8.0,12.0,87,0.00,,,0.00,Wunderground v.1.15,2013-01-12 07:55:00,
2013-01-12 01:57:00,50.6,46.9,29.68,South,186,8.0,12.0,87,0.00,,,0.00,Wunderground v.1.15,2013-01-12 07:57:00,
2013-01-12 01:58:00,50.6,46.9,29.69,SSE,162,8.0,12.0,87,0.00,,,0.00,Wunderground v.1.15,2013-01-12 07:58:00,
2013-01-12 02:02:00,50.5,46.8,29.69,SSW,200,8.0,11.0,87,0.00,,,0.00,Wunderground v.1.15,2013-01-12 08:02:00,
2013-01-12 02:03:00,50.5,46.8,29.69,South,180,8.0,11.0,87,0.00,,,0.00,Wunderground v.1.15,2013-01-12 08:03:00,
2013-01-12 02:06:00,50.4,46.7,29.69,SSW,203,8.0,11.0,87,0.00,,,0.00,Wunderground v.1.15,2013-01-12 08:06:00,
2013-01-12 02:07:00,50.4,46.7,29.69,South,182,8.0,11.0,87,0.00,,,0.00,Wunderground v.1.15,2013-01-12 08:07:00,
2013-01-12 02:11:00,50.3,46.6,29.70,South,188,8.0,13.0,87,0.00,,,0.00,Wunderground v.1.15,2013-01-12 08:11:00,
2013-01-12 02:12:00,50.3,46.6,29.70,SSW,196,8.0,13.0,87,0.00,,,0.00,Wunderground v.1.15,2013-01-12 08:12:00,
2013-01-12 02:15:00,50.2,46.5,29.70,SSW,198,9.0,13.0,87,0.00,,,0.00,Wunderground v.1.15,2013-01-12 08:15:00,
2013-01-12 02:16:00,50.2,46.5,29.69,South,190,9.0,13.0,87,0.00,,,0.00,Wunderground v.1.15,2013-01-12 08:16:00,
2013-01-12 02:19:00,50.2,46.5,29.69,South,183,10.0,13.0,87,0.00,,,0.00,Wunderground v.1.15,2013-01-12 08:19:00,
2013-01-12 02:20:00,50.3,46.6,29.70,SSW,197,10.0,10.0,87,0.00,,,0.00,Wunderground v.1.15,2013-01-12 08:20:00,
2013-01-12 02:22:00,50.3,46.6,29.70,SSW,198,10.0,10.0,87,0.00,,,0.00,Wunderground v.1.15,2013-01-12 08:22:00,
2013-01-12 02:24:00,50.3,46.6,29.70,SSW,194,10.0,12.0,87,0.00,,,0.00,Wunderground v.1.15,2013-01-12 08:24:00,
2013-01-12 02:27:00,50.4,46.7,29.70,SSW,209,10.0,13.0,87,0.00,,,0.00,Wunderground v.1.15,2013-01-12 08:27:00,
2013-01-12 02:29:00,50.4,46.7,29.70,SSW,205,9.0,13.0,87,0.00,,,0.00,Wunderground v.1.15,2013-01-12 08:29:00,
2013-01-12 02:30:00,50.4,46.7,29.70,SSW,205,9.0,16.0,87,0.00,,,0.00,Wunderground v.1.15,2013-01-12 08:30:00,
2013-01-12 02:31:00,50.4,46.7,29.70,South,171,9.0,16.0,87,0.00,,,0.00,Wunderground v.1.15,2013-01-12 08:31:00,
2013-01-12 02:35:00,50.4,46.7,29.70,South,169,9.0,16.0,87,0.00,,,0.00,Wunderground v.1.15,2013-01-12 08:35:00,
2013-01-12 02:36:00,50.4,46.7,29.71,SSW,200,9.0,16.0,87,0.00,,,0.00,Wunderground v.1.15,2013-01-12 08:36:00,
2013-01-12 02:37:00,50.4,46.7,29.70,South,185,9.0,16.0,87,0.00,,,0.00,Wunderground v.1.15,2013-01-12 08:37:00,
2013-01-12 02:40:00,50.4,46.7,29.71,South,186,9.0,9.0,87,0.00,,,0.00,Wunderground v.1.15,2013-01-12 08:40:00,
2013-01-12 02:41:00,50.4,46.7,29.71,SSW,197,9.0,9.0,87,0.00,,,0.00,Wunderground v.1.15,2013-01-12 08:41:00,
2013-01-12 02:43:00,50.4,46.7,29.71,SSW,192,9.0,10.0,87,0.00,,,0.00,Wunderground v.1.15,2013-01-12 08:43:00,
2013-01-12 02:45:00,50.4,46.7,29.71,SSW,200,9.0,10.0,87,0.00,,,0.00,Wunderground v.1.15,2013-01-12 08:45:00,
2013-01-12 02:46:00,50.4,46.7,29.71,South,180,9.0,10.0,87,0.00,,,0.00,Wunderground v.1.15,2013-01-12 08:46:00,
2013-01-12 02:48:00,50.3,46.6,29.71,SSW,204,9.0,11.0,87,0.00,,,0.00,Wunderground v.1.15,2013-01-12 08:48:00,
2013-01-12 02:50:00,50.3,46.6,29.71,SSW,204,9.0,9.0,87,0.00,,,0.00,Wunderground v.1.15,2013-01-12 08:50:00,
2013-01-12 02:52:00,50.3,46.6,29.71,South,191,8.0,9.0,87,0.00,,,0.00,Wunderground v.1.15,2013-01-12 08:52:00,
2013-01-12 02:54:00,50.3,46.6,29.71,South,178,8.0,12.0,87,0.00,,,0.00,Wunderground v.1.15,2013-01-12 08:54:00,
2013-01-12 02:55:00,50.3,46.6,29.71,SSW,205,8.0,12.0,87,0.00,,,0.00,Wunderground v.1.15,2013-01-12 08:55:00,
2013-01-12 02:58:00,50.3,46.6,29.71,SSW,192,8.0,12.0,87,0.00,,,0.00,Wunderground v.1.15,2013-01-12 08:58:00,
2013-01-12 03:00:00,50.2,46.5,29.71,South,169,7.0,7.0,87,0.00,,,0.00,Wunderground v.1.15,2013-01-12 09:00:00,
2013-01-12 03:01:00,50.2,46.5,29.71,SSW,192,8.0,8.0,87,0.00,,,0.00,Wunderground v.1.15,2013-01-12 09:01:00,
2013-01-12 03:02:00,50.2,46.5,29.71,SSE,161,8.0,8.0,87,0.00,,,0.00,Wunderground v.1.15,2013-01-12 09:02:00,
2013-01-12 03:05:00,50.1,46.4,29.71,SSW,192,7.0,9.0,87,0.00,,,0.00,Wunderground v.1.15,2013-01-12 09:05:00,
2013-01-12 03:06:00,50.1,46.4,29.71,SSW,193,7.0,9.0,87,0.00,,,0.00,Wunderground v.1.15,2013-01-12 09:06:00,
2013-01-12 03:07:00,50.1,46.4,29.71,South,191,7.0,10.0,87,0.00,,,0.00,Wunderground v.1.15,2013-01-12 09:07:00,
2013-01-12 03:09:00,50.0,46.3,29.71,SW,219,7.0,10.0,87,0.00,,,0.00,Wunderground v.1.15,2013-01-12 09:09:00,
2013-01-12 03:12:00,49.9,46.2,29.70,South,189,7.0,8.0,87,0.00,,,0.00,Wunderground v.1.15,2013-01-12 09:12:00,
2013-01-12 03:14:00,49.9,46.2,29.70,South,188,6.0,8.0,87,0.00,,,0.00,Wunderground v.1.15,2013-01-12 09:14:00,
2013-01-12 03:17:00,49.9,46.5,29.71,SSW,203,7.0,9.0,88,0.00,,,0.00,Wunderground v.1.15,2013-01-12 09:17:00,
2013-01-12 03:18:00,49.9,46.5,29.70,SSW,199,7.0,9.0,88,0.00,,,0.00,Wunderground v.1.15,2013-01-12 09:18:00,
2013-01-12 03:20:00,50.0,46.3,29.71,SSW,193,7.0,7.0,87,0.00,,,0.00,Wunderground v.1.15,2013-01-12 09:20:00,
2013-01-12 03:21:00,50.0,46.3,29.71,South,177,7.0,7.0,87,0.00,,,0.00,Wunderground v.1.15,2013-01-12 09:21:00,
2013-01-12 03:23:00,50.0,46.6,29.71,SSW,196,7.0,7.0,88,0.00,,,0.00,Wunderground v.1.15,2013-01-12 09:23:00,
2013-01-12 03:26:00,50.0,46.6,29.70,South,180,7.0,10.0,88,0.00,,,0.00,Wunderground v.1.15,2013-01-12 09:26:00,
2013-01-12 03:27:00,50.0,46.6,29.71,South,186,7.0,13.0,88,0.00,,,0.00,Wunderground v.1.15,2013-01-12 09:27:00,
2013-01-12 03:30:00,50.1,46.4,29.71,SW,222,8.0,8.0,87,0.00,,,0.00,Wunderground v.1.15,2013-01-12 09:30:00,
2013-01-12 03:31:00,50.1,46.4,29.71,South,178,9.0,9.0,87,0.00,,,0.00,Wunderground v.1.15,2013-01-12 09:31:00,
2013-01-12 03:32:00,50.1,46.4,29.71,SSW,200,9.0,12.0,87,0.00,,,0.00,Wunderground v.1.15,2013-01-12 09:32:00,
2013-01-12 03:34:00,50.2,46.5,29.71,South,178,9.0,12.0,87,0.00,,,0.00,Wunderground v.1.15,2013-01-12 09:34:00,
2013-01-12 03:36:00,50.2,46.5,29.71,South,184,9.0,14.0,87,0.00,,,0.00,Wunderground v.1.15,2013-01-12 09:36:00,
2013-01-12 03:37:00,50.3,46.6,29.71,SSW,199,10.0,14.0,87,0.00,,,0.00,Wunderground v.1.15,2013-01-12 09:37:00,
2013-01-12 03:39:00,50.3,46.6,29.71,SSW,196,10.0,15.0,87,0.00,,,0.00,Wunderground v.1.15,2013-01-12 09:39:00,
2013-01-12 03:40:00,50.3,46.6,29.71,SSW,199,10.0,10.0,87,0.00,,,0.00,Wunderground v.1.15,2013-01-12 09:40:00,
2013-01-12 03:42:00,50.4,46.7,29.71,SSW,213,11.0,11.0,87,0.00,,,0.00,Wunderground v.1.15,2013-01-12 09:42:00,
2013-01-12 03:45:00,50.6,46.6,29.70,SSW,205,11.0,14.0,86,0.00,,,0.00,Wunderground v.1.15,2013-01-12 09:45:00,
2013-01-12 03:46:00,50.5,46.5,29.70,SSW,205,11.0,14.0,86,0.00,,,0.00,Wunderground v.1.15,2013-01-12 09:46:00,
2013-01-12 03:51:00,50.6,46.6,29.70,SSW,203,10.0,15.0,86,0.00,,,0.00,Wunderground v.1.15,2013-01-12 09:51:00,
2013-01-12 03:52:00,50.7,46.7,29.70,SSW,198,10.0,15.0,86,0.00,,,0.00,Wunderground v.1.15,2013-01-12 09:52:00,
2013-01-12 03:54:00,50.7,46.7,29.70,SSW,200,10.0,15.0,86,0.00,,,0.00,Wunderground v.1.15,2013-01-12 09:54:00,
2013-01-12 03:56:00,50.7,46.7,29.70,SSW,198,9.0,15.0,86,0.00,,,0.00,Wunderground v.1.15,2013-01-12 09:56:00,
2013-01-12 03:59:00,50.7,46.7,29.70,SSW,204,9.0,15.0,86,0.00,,,0.00,Wunderground v.1.15,2013-01-12 09:59:00,
2013-01-12 04:02:00,50.7,46.7,29.70,SSW,192,9.0,9.0,86,0.00,,,0.00,Wunderground v.1.15,2013-01-12 10:02:00,
2013-01-12 04:03:00,50.7,46.7,29.70,SW,219,8.0,9.0,86,0.00,,,0.00,Wunderground v.1.15,2013-01-12 10:03:00,
2013-01-12 04:06:00,50.7,46.7,29.70,SSW,199,9.0,12.0,86,0.00,,,0.00,Wunderground v.1.15,2013-01-12 10:06:00,
2013-01-12 04:08:00,50.7,46.7,29.70,SW,225,9.0,12.0,86,0.00,,,0.00,Wunderground v.1.15,2013-01-12 10:08:00,
2013-01-12 04:09:00,50.7,46.7,29.70,SSW,209,9.0,12.0,86,0.00,,,0.00,Wunderground v.1.15,2013-01-12 10:09:00,
2013-01-12 04:10:00,50.6,46.6,29.70,South,186,9.0,9.0,86,0.00,,,0.00,Wunderground v.1.15,2013-01-12 10:10:00,
2013-01-12 04:12:00,50.6,46.6,29.70,SSW,196,9.0,10.0,86,0.00,,,0.00,Wunderground v.1.15,2013-01-12 10:12:00,
2013-01-12 04:13:00,50.6,46.6,29.71,SSW,204,9.0,12.0,86,0.00,,,0.00,Wunderground v.1.15,2013-01-12 10:13:00,
2013-01-12 04:15:00,50.5,46.5,29.71,SSE,166,9.0,12.0,86,0.00,,,0.00,Wunderground v.1.15,2013-01-12 10:15:00,
2013-01-12 04:18:00,50.5,46.5,29.71,SSW,201,8.0,13.0,86,0.00,,,0.00,Wunderground v.1.15,2013-01-12 10:18:00,
2013-01-12 04:20:00,50.4,46.4,29.70,SSW,200,8.0,10.0,86,0.00,,,0.00,Wunderground v.1.15,2013-01-12 10:20:00,
2013-01-12 04:21:00,50.5,46.5,29.70,South,186,8.0,10.0,86,0.00,,,0.00,Wunderground v.1.15,2013-01-12 10:21:00,
2013-01-12 04:23:00,50.4,46.4,29.71,SSW,213,8.0,10.0,86,0.00,,,0.00,Wunderground v.1.15,2013-01-12 10:23:00,
2013-01-12 04:25:00,50.4,46.4,29.71,SW,220,8.0,19.0,86,0.00,,,0.00,Wunderground v.1.15,2013-01-12 10:25:00,
2013-01-12 04:26:00,50.4,46.4,29.71,South,184,8.0,19.0,86,0.00,,,0.00,Wunderground v.1.15,2013-01-12 10:26:00,
2013-01-12 04:29:00,50.3,46.3,29.71,SW,215,8.0,19.0,86,0.00,,,0.00,Wunderground v.1.15,2013-01-12 10:29:00,
2013-01-12 04:32:00,50.2,46.2,29.71,South,189,8.0,11.0,86,0.00,,,0.00,Wunderground v.1.15,2013-01-12 10:32:00,
2013-01-12 04:33:00,50.2,46.2,29.71,SSW,194,8.0,11.0,86,0.00,,,0.00,Wunderground v.1.15,2013-01-12 10:33:00,
2013-01-12 04:34:00,50.2,46.2,29.71,South,190,8.0,11.0,86,0.00,,,0.00,Wunderground v.1.15,2013-01-12 10:34:00,
2013-01-12 04:35:00,50.2,46.2,29.71,South,188,8.0,11.0,86,0.00,,,0.00,Wunderground v.1.15,2013-01-12 10:35:00,
2013-01-12 04:38:00,50.2,46.2,29.71,South,190,7.0,11.0,86,0.00,,,0.00,Wunderground v.1.15,2013-01-12 10:38:00,
2013-01-12 04:39:00,50.2,46.2,29.71,SSW,194,7.0,11.0,86,0.00,,,0.00,Wunderground v.1.15,2013-01-12 10:39:00,
2013-01-12 04:41:00,50.2,46.2,29.71,SSW,195,7.0,7.0,86,0.00,,,0.00,Wunderground v.1.15,2013-01-12 10:41:00,
2013-01-12 04:43:00,50.1,46.1,29.71,SSW,195,6.0,10.0,86,0.00,,,0.00,Wunderground v.1.15,2013-01-12 10:43:00,
2013-01-12 04:45:00,50.1,46.1,29.71,South,191,6.0,10.0,86,0.00,,,0.00,Wunderground v.1.15,2013-01-12 10:45:00,
2013-01-12 04:47:00,50.1,46.1,29.71,South,190,6.0,10.0,86,0.00,,,0.00,Wunderground v.1.15,2013-01-12 10:47:00,
2013-01-12 04:48:00,50.1,46.1,29.71,SSW,194,6.0,10.0,86,0.00,,,0.00,Wunderground v.1.15,2013-01-12 10:48:00,
2013-01-12 04:50:00,50.0,46.0,29.72,SSW,200,6.0,11.0,86,0.00,,,0.00,Wunderground v.1.15,2013-01-12 10:50:00,
2013-01-12 04:52:00,50.0,46.0,29.72,SSW,197,6.0,11.0,86,0.00,,,0.00,Wunderground v.1.15,2013-01-12 10:52:00,
2013-01-12 04:53:00,50.0,46.0,29.72,South,181,6.0,11.0,86,0.00,,,0.00,Wunderground v.1.15,2013-01-12 10:53:00,
2013-01-12 04:54:00,50.0,46.0,29.72,South,178,6.0,11.0,86,0.00,,,0.00,Wunderground v.1.15,2013-01-12 10:54:00,
2013-01-12 04:58:00,49.9,46.2,29.72,SSW,198,8.0,11.0,87,0.00,,,0.00,Wunderground v.1.15,2013-01-12 10:58:00,
2013-01-12 05:01:00,49.8,46.1,29.72,SSW,207,8.0,8.0,87,0.00,,,0.00,Wunderground v.1.15,2013-01-12 11:01:00,
2013-01-12 05:02:00,49.8,46.1,29.72,SSW,210,8.0,8.0,87,0.00,,,0.00,Wunderground v.1.15,2013-01-12 11:02:00,
2013-01-12 05:04:00,49.7,46.0,29.72,SSW,209,8.0,10.0,87,0.00,,,0.00,Wunderground v.1.15,2013-01-12 11:04:00,
2013-01-12 05:05:00,49.6,45.9,29.72,South,190,8.0,10.0,87,0.00,,,0.00,Wunderground v.1.15,2013-01-12 11:05:00,
2013-01-12 05:08:00,49.6,45.9,29.73,South,190,8.0,10.0,87,0.00,,,0.00,Wunderground v.1.15,2013-01-12 11:08:00,
2013-01-12 05:10:00,49.5,45.8,29.73,South,191,8.0,8.0,87,0.00,,,0.00,Wunderground v.1.15,2013-01-12 11:10:00,
2013-01-12 05:12:00,49.4,45.7,29.72,SSW,194,9.0,9.0,87,0.00,,,0.00,Wunderground v.1.15,2013-01-12 11:12:00,
2013-01-12 05:13:00,49.4,45.7,29.72,WSW,238,9.0,9.0,87,0.00,,,0.00,Wunderground v.1.15,2013-01-12 11:13:00,
2013-01-12 05:15:00,49.4,45.7,29.73,SSW,193,8.0,10.0,87,0.00,,,0.00,Wunderground v.1.15,2013-01-12 11:15:00,
2013-01-12 05:20:00,49.2,45.8,29.73,South,189,8.0,9.0,88,0.00,,,0.00,Wunderground v.1.15,2013-01-12 11:20:00,
2013-01-12 05:23:00,49.1,45.7,29.73,SSW,207,7.0,9.0,88,0.00,,,0.00,Wunderground v.1.15,2013-01-12 11:23:00,
2013-01-12 05:24:00,49.1,45.7,29.73,SSW,195,7.0,9.0,88,0.00,,,0.00,Wunderground v.1.15,2013-01-12 11:24:00,
2013-01-12 05:25:00,49.0,45.6,29.73,SSW,202,7.0,9.0,88,0.00,,,0.00,Wunderground v.1.15,2013-01-12 11:25:00,
2013-01-12 05:28:00,48.9,45.5,29.74,South,186,7.0,9.0,88,0.00,,,0.00,Wunderground v.1.15,2013-01-12 11:28:00,
2013-01-12 05:29:00,48.9,45.5,29.74,SSW,201,7.0,9.0,88,0.00,,,0.00,Wunderground v.1.15,2013-01-12 11:29:00,
2013-01-12 05:30:00,48.8,45.4,29.74,South,179,7.0,7.0,88,0.00,,,0.00,Wunderground v.1.15,2013-01-12 11:30:00,
2013-01-12 05:33:00,48.7,45.3,29.75,SW,224,7.0,9.0,88,0.00,,,0.00,Wunderground v.1.15,2013-01-12 11:33:00,
2013-01-12 05:34:00,48.7,45.3,29.75,SSW,208,7.0,9.0,88,0.00,,,0.00,Wunderground v.1.15,2013-01-12 11:34:00,
2013-01-12 05:37:00,48.5,45.1,29.75,SSW,199,7.0,10.0,88,0.00,,,0.00,Wunderground v.1.15,2013-01-12 11:37:00,
2013-01-12 05:40:00,48.3,44.9,29.75,SSW,202,7.0,7.0,88,0.00,,,0.00,Wunderground v.1.15,2013-01-12 11:40:00,
2013-01-12 05:41:00,48.3,44.9,29.75,SSW,194,7.0,7.0,88,0.00,,,0.00,Wunderground v.1.15,2013-01-12 11:41:00,
2013-01-12 05:43:00,48.1,44.7,29.75,SSW,195,7.0,7.0,88,0.00,,,0.00,Wunderground v.1.15,2013-01-12 11:43:00,
2013-01-12 05:44:00,48.1,45.0,29.75,South,174,7.0,10.0,89,0.00,,,0.00,Wunderground v.1.15,2013-01-12 11:44:00,
2013-01-12 05:48:00,47.9,44.8,29.75,SW,223,7.0,12.0,89,0.00,,,0.00,Wunderground v.1.15,2013-01-12 11:48:00,
2013-01-12 05:49:00,47.9,44.8,29.75,SSW,203,7.0,12.0,89,0.00,,,0.00,Wunderground v.1.15,2013-01-12 11:49:00,
2013-01-12 05:50:00,47.9,44.8,29.75,SSW,210,8.0,8.0,89,0.00,,,0.00,Wunderground v.1.15,2013-01-12 11:50:00,
2013-01-12 05:52:00,47.8,44.7,29.76,SSW,206,8.0,9.0,89,0.00,,,0.00,Wunderground v.1.15,2013-01-12 11:52:00,
2013-01-12 05:53:00,47.8,44.7,29.75,SSW,202,7.0,9.0,89,0.00,,,0.00,Wunderground v.1.15,2013-01-12 11:53:00,
2013-01-12 05:55:00,47.7,44.6,29.76,WSW,243,7.0,9.0,89,0.00,,,0.00,Wunderground v.1.15,2013-01-12 11:55:00,
2013-01-12 05:59:00,47.6,44.2,29.76,SW,215,7.0,10.0,88,0.00,,,0.00,Wunderground v.1.15,2013-01-12 11:59:00,
2013-01-12 06:00:00,47.6,44.2,29.76,WSW,238,7.0,8.0,88,0.00,,,0.00,Wunderground v.1.15,2013-01-12 12:00:00,
2013-01-12 06:02:00,47.6,44.2,29.76,SW,235,8.0,13.0,88,0.00,,,0.00,Wunderground v.1.15,2013-01-12 12:02:00,
2013-01-12 06:04:00,47.6,44.2,29.76,WSW,244,8.0,13.0,88,0.00,,,0.00,Wunderground v.1.15,2013-01-12 12:04:00,
2013-01-12 06:07:00,47.8,44.1,29.77,SW,227,8.0,13.0,87,0.00,,,0.00,Wunderground v.1.15,2013-01-12 12:07:00,
2013-01-12 06:08:00,47.7,44.0,29.78,WSW,257,8.0,13.0,87,0.00,,,0.00,Wunderground v.1.15,2013-01-12 12:08:00,
2013-01-12 06:10:00,47.4,42.5,29.78,WSW,239,8.0,8.0,83,0.00,,,0.00,Wunderground v.1.15,2013-01-12 12:10:00,
2013-01-12 06:13:00,46.8,41.6,29.79,NW,308,6.0,8.0,82,0.00,,,0.00,Wunderground v.1.15,2013-01-12 12:13:00,
2013-01-12 06:14:00,46.5,41.0,29.79,West,274,6.0,11.0,81,0.00,,,0.00,Wunderground v.1.15,2013-01-12 12:14:00,
2013-01-12 06:19:00,45.1,39.6,29.79,West,264,4.0,11.0,81,0.00,,,0.00,Wunderground v.1.15,2013-01-12 12:19:00,
2013-01-12 06:20:00,44.7,39.2,29.79,WSW,244,4.0,6.0,81,0.00,,,0.00,Wunderground v.1.15,2013-01-12 12:20:00,
2013-01-12 06:24:00,43.8,38.7,29.80,WSW,252,4.0,6.0,82,0.00,,,0.00,Wunderground v.1.15,2013-01-12 12:24:00,
2013-01-12 06:25:00,43.5,38.4,29.80,West,262,4.0,6.0,82,0.00,,,0.00,Wunderground v.1.15,2013-01-12 12:25:00,
2013-01-12 06:27:00,43.3,38.2,29.80,SW,225,4.0,9.0,82,0.00,,,0.00,Wunderground v.1.15,2013-01-12 12:27:00,
2013-01-12 06:31:00,42.6,38.1,29.80,West,263,4.0,4.0,84,0.00,,,0.00,Wunderground v.1.15,2013-01-12 12:31:00,
2013-01-12 06:33:00,42.3,37.8,29.80,WSW,247,4.0,11.0,84,0.00,,,0.00,Wunderground v.1.15,2013-01-12 12:33:00,
2013-01-12 06:34:00,42.2,37.7,29.81,WSW,252,4.0,11.0,84,0.00,,,0.00,Wunderground v.1.15,2013-01-12 12:34:00,
2013-01-12 06:37:00,41.8,37.6,29.81,WSW,249,4.0,11.0,85,0.00,,,0.00,Wunderground v.1.15,2013-01-12 12:37:00,
2013-01-12 06:38:00,41.7,37.5,29.81,West,270,4.0,11.0,85,0.00,,,0.00,Wunderground v.1.15,2013-01-12 12:38:00,
2013-01-12 06:40:00,41.5,37.3,29.82,WSW,238,5.0,6.0,85,0.00,,,0.00,Wunderground v.1.15,2013-01-12 12:40:00,
2013-01-12 06:42:00,41.3,37.1,29.83,SW,229,5.0,9.0,85,0.00,,,0.00,Wunderground v.1.15,2013-01-12 12:42:00,
2013-01-12 06:45:00,41.0,36.8,29.83,WSW,255,6.0,9.0,85,0.00,,,0.00,Wunderground v.1.15,2013-01-12 12:45:00,
2013-01-12 06:48:00,40.8,36.6,29.83,SW,235,7.0,9.0,85,0.00,,,0.00,Wunderground v.1.15,2013-01-12 12:48:00,
2013-01-12 06:50:00,40.5,36.3,29.83,WSW,237,7.0,7.0,85,0.00,,,0.00,Wunderground v.1.15,2013-01-12 12:50:00,
2013-01-12 06:53:00,40.3,36.1,29.83,WSW,238,7.0,9.0,85,0.00,,,0.00,Wunderground v.1.15,2013-01-12 12:53:00,
2013-01-12 06:54:00,40.2,36.3,29.83,SW,227,7.0,9.0,86,0.00,,,0.00,Wunderground v.1.15,2013-01-12 12:54:00,
2013-01-12 06:55:00,40.1,36.0,29.83,WSW,243,7.0,9.0,85,0.00,,,0.00,Wunderground v.1.15,2013-01-12 12:55:00,
2013-01-12 06:56:00,40.1,36.0,29.83,WSW,237,7.0,9.0,85,0.00,,,0.00,Wunderground v.1.15,2013-01-12 12:56:00,
2013-01-12 07:01:00,39.6,35.2,29.83,WSW,242,7.0,7.0,84,0.00,,,0.00,Wunderground v.1.15,2013-01-12 13:01:00,
2013-01-12 07:03:00,39.4,35.0,29.84,WSW,246,7.0,10.0,84,0.00,,,0.00,Wunderground v.1.15,2013-01-12 13:03:00,
2013-01-12 07:04:00,39.3,34.9,29.84,SW,229,8.0,10.0,84,0.00,,,0.00,Wunderground v.1.15,2013-01-12 13:04:00,
2013-01-12 07:06:00,39.1,34.7,29.84,SW,236,8.0,10.0,84,0.00,,,0.00,Wunderground v.1.15,2013-01-12 13:06:00,
2013-01-12 07:07:00,39.0,34.6,29.84,SSW,210,8.0,10.0,84,0.00,,,0.00,Wunderground v.1.15,2013-01-12 13:07:00,
2013-01-12 07:10:00,38.6,34.2,29.85,WSW,249,8.0,8.0,84,0.00,,,0.00,Wunderground v.1.15,2013-01-12 13:10:00,
2013-01-12 07:13:00,38.4,34.3,29.85,WSW,246,8.0,14.0,85,0.00,,,0.00,Wunderground v.1.15,2013-01-12 13:13:00,
2013-01-12 07:14:00,38.3,34.2,29.85,SW,231,8.0,14.0,85,0.00,,,0.00,Wunderground v.1.15,2013-01-12 13:14:00,
2013-01-12 07:16:00,38.2,34.1,29.85,WSW,243,8.0,14.0,85,0.00,,,0.00,Wunderground v.1.15,2013-01-12 13:16:00,
2013-01-12 07:18:00,37.9,33.8,29.85,WSW,248,7.0,14.0,85,0.00,,,0.00,Wunderground v.1.15,2013-01-12 13:18:00,
2013-01-12 07:19:00,37.8,33.7,29.85,SW,236,7.0,14.0,85,0.00,,,0.00,Wunderground v.1.15,2013-01-12 13:19:00,
2013-01-12 07:22:00,37.6,33.8,29.85,SSW,198,7.0,11.0,86,0.00,,,0.00,Wunderground v.1.15,2013-01-12 13:22:00,
2013-01-12 07:23:00,37.5,33.7,29.85,WSW,242,7.0,11.0,86,0.00,,,0.00,Wunderground v.1.15,2013-01-12 13:23:00,
2013-01-12 07:24:00,37.5,33.7,29.85,WSW,242,7.0,11.0,86,0.00,,,0.00,Wunderground v.1.15,2013-01-12 13:24:00,
2013-01-12 07:29:00,37.1,33.3,29.85,West,273,7.0,11.0,86,0.00,,,0.00,Wunderground v.1.15,2013-01-12 13:29:00,
2013-01-12 07:31:00,37.0,33.2,29.86,WSW,257,7.0,14.0,86,0.00,,,0.00,Wunderground v.1.15,2013-01-12 13:31:00,
2013-01-12 07:32:00,37.0,33.5,29.86,SW,231,7.0,14.0,87,0.00,,,0.00,Wunderground v.1.15,2013-01-12 13:32:00,
2013-01-12 07:33:00,36.9,33.4,29.86,WSW,255,7.0,14.0,87,0.00,,,0.00,Wunderground v.1.15,2013-01-12 13:33:00,
2013-01-12 07:37:00,36.8,33.3,29.86,WSW,242,8.0,14.0,87,0.00,,,0.00,Wunderground v.1.15,2013-01-12 13:37:00,
2013-01-12 07:38:00,36.7,33.2,29.86,WSW,242,7.0,14.0,87,0.00,,,0.00,Wunderground v.1.15,2013-01-12 13:38:00,
2013-01-12 07:39:00,36.7,33.2,29.86,WSW,257,8.0,14.0,87,0.00,,,0.00,Wunderground v.1.15,2013-01-12 13:39:00,
2013-01-12 07:41:00,36.6,33.1,29.87,West,279,7.0,11.0,87,0.00,,,0.00,Wunderground v.1.15,2013-01-12 13:41:00,
2013-01-12 07:44:00,36.5,33.0,29.87,West,259,7.0,11.0,87,0.00,,,0.00,Wunderground v.1.15,2013-01-12 13:44:00,
2013-01-12 07:45:00,36.5,33.0,29.87,WSW,245,7.0,11.0,87,0.00,,,0.00,Wunderground v.1.15,2013-01-12 13:45:00,
2013-01-12 07:47:00,36.4,32.9,29.87,West,265,8.0,11.0,87,0.00,,,0.00,Wunderground v.1.15,2013-01-12 13:47:00,
2013-01-12 07:50:00,36.3,32.8,29.88,SW,229,7.0,10.0,87,0.00,,,0.00,Wunderground v.1.15,2013-01-12 13:50:00,
2013-01-12 07:53:00,36.2,32.7,29.88,WSW,244,7.0,11.0,87,0.00,,,0.00,Wunderground v.1.15,2013-01-12 13:53:00,
2013-01-12 07:54:00,36.2,32.7,29.88,West,273,7.0,11.0,87,0.00,,,0.00,Wunderground v.1.15,2013-01-12 13:54:00,
2013-01-12 07:56:00,36.1,32.6,29.88,WSW,258,7.0,11.0,87,0.00,,,0.00,Wunderground v.1.15,2013-01-12 13:56:00,
2013-01-12 07:57:00,36.1,32.6,29.89,WSW,254,7.0,11.0,87,0.00,,,0.00,Wunderground v.1.15,2013-01-12 13:57:00,
2013-01-12 08:00:00,36.0,32.8,29.89,WSW,240,6.0,8.0,88,0.00,,,0.00,Wunderground v.1.15,2013-01-12 14:00:00,
2013-01-12 08:01:00,35.9,32.4,29.89,WSW,242,6.0,8.0,87,0.00,,,0.00,Wunderground v.1.15,2013-01-12 14:01:00,
2013-01-12 08:03:00,35.9,32.4,29.89,West,275,6.0,11.0,87,0.00,,,0.00,Wunderground v.1.15,2013-01-12 14:03:00,
2013-01-12 08:09:00,35.6,32.1,29.88,WSW,255,6.0,11.0,87,0.00,,,0.00,Wunderground v.1.15,2013-01-12 14:09:00,
2013-01-12 08:10:00,35.6,32.1,29.88,West,261,6.0,6.0,87,0.00,,,0.00,Wunderground v.1.15,2013-01-12 14:10:00,
2013-01-12 08:14:00,35.4,32.2,29.89,WSW,245,5.0,6.0,88,0.00,,,0.00,Wunderground v.1.15,2013-01-12 14:14:00,
2013-01-12 08:15:00,35.4,32.2,29.89,WSW,239,5.0,7.0,88,0.00,,,0.00,Wunderground v.1.15,2013-01-12 14:15:00,
2013-01-12 08:16:00,35.4,31.9,29.89,WSW,244,5.0,7.0,87,0.00,,,0.00,Wunderground v.1.15,2013-01-12 14:16:00,
2013-01-12 08:20:00,35.2,31.7,29.90,SW,232,6.0,6.0,87,0.00,,,0.00,Wunderground v.1.15,2013-01-12 14:20:00,
2013-01-12 08:22:00,35.1,31.6,29.90,SW,219,6.0,6.0,87,0.00,,,0.00,Wunderground v.1.15,2013-01-12 14:22:00,
2013-01-12 08:24:00,35.1,31.6,29.90,SW,234,7.0,10.0,87,0.00,,,0.00,Wunderground v.1.15,2013-01-12 14:24:00,
2013-01-12 08:25:00,35.0,31.5,29.90,SW,229,7.0,10.0,87,0.00,,,0.00,Wunderground v.1.15,2013-01-12 14:25:00,
2013-01-12 08:29:00,34.9,31.4,29.90,WSW,249,6.0,10.0,87,0.00,,,0.00,Wunderground v.1.15,2013-01-12 14:29:00,
2013-01-12 08:31:00,34.9,31.4,29.91,WSW,243,7.0,12.0,87,0.00,,,0.00,Wunderground v.1.15,2013-01-12 14:31:00,
2013-01-12 08:34:00,34.8,31.3,29.91,SW,217,7.0,12.0,87,0.00,,,0.00,Wunderground v.1.15,2013-01-12 14:34:00,
2013-01-12 08:36:00,34.7,31.2,29.91,WSW,239,7.0,12.0,87,0.00,,,0.00,Wunderground v.1.15,2013-01-12 14:36:00,
2013-01-12 08:37:00,34.7,31.2,29.91,WSW,248,8.0,12.0,87,0.00,,,0.00,Wunderground v.1.15,2013-01-12 14:37:00,
2013-01-12 08:39:00,34.6,30.8,29.91,WSW,244,8.0,12.0,86,0.00,,,0.00,Wunderground v.1.15,2013-01-12 14:39:00,
2013-01-12 08:43:00,34.5,30.7,29.91,WSW,250,7.0,10.0,86,0.00,,,0.00,Wunderground v.1.15,2013-01-12 14:43:00,
2013-01-12 08:45:00,34.4,30.6,29.91,WSW,242,7.0,10.0,86,0.00,,,0.00,Wunderground v.1.15,2013-01-12 14:45:00,
2013-01-12 08:48:00,34.4,30.9,29.91,WSW,242,6.0,10.0,87,0.00,,,0.00,Wunderground v.1.15,2013-01-12 14:48:00,
2013-01-12 08:49:00,34.4,30.9,29.90,WSW,238,5.0,10.0,87,0.00,,,0.00,Wunderground v.1.15,2013-01-12 14:49:00,
2013-01-12 08:52:00,34.3,30.5,29.91,WSW,248,5.0,7.0,86,0.00,,,0.00,Wunderground v.1.15,2013-01-12 14:52:00,
2013-01-12 08:53:00,34.3,30.5,29.91,WSW,244,5.0,7.0,86,0.00,,,0.00,Wunderground v.1.15,2013-01-12 14:53:00,
2013-01-12 08:56:00,34.3,30.8,29.92,WSW,244,5.0,7.0,87,0.00,,,0.00,Wunderground v.1.15,2013-01-12 14:56:00,
2013-01-12 08:57:00,34.2,30.4,29.92,WSW,250,5.0,7.0,86,0.00,,,0.00,Wunderground v.1.15,2013-01-12 14:57:00,
2013-01-12 08:59:00,34.2,30.4,29.92,SW,236,6.0,7.0,86,0.00,,,0.00,Wunderground v.1.15,2013-01-12 14:59:00,
2013-01-12 09:03:00,34.0,30.5,29.92,SW,229,5.0,10.0,87,0.00,,,0.00,Wunderground v.1.15,2013-01-12 15:03:00,
2013-01-12 09:04:00,34.0,30.3,29.92,WSW,242,5.0,10.0,86,0.00,,,0.00,Wunderground v.1.15,2013-01-12 15:04:00,
2013-01-12 09:05:00,34.0,30.3,29.91,WSW,247,5.0,11.0,86,0.00,,,0.00,Wunderground v.1.15,2013-01-12 15:05:00,
2013-01-12 09:06:00,33.9,30.2,29.91,WSW,250,6.0,11.0,86,0.00,,,0.00,Wunderground v.1.15,2013-01-12 15:06:00,
2013-01-12 09:10:00,33.8,30.1,29.92,WSW,248,6.0,6.0,86,0.00,,,0.00,Wunderground v.1.15,2013-01-12 15:10:00,
2013-01-12 09:12:00,33.8,30.1,29.92,WSW,241,5.0,6.0,86,0.00,,,0.00,Wunderground v.1.15,2013-01-12 15:12:00,
2013-01-12 09:13:00,33.8,30.1,29.92,WSW,242,5.0,6.0,86,0.00,,,0.00,Wunderground v.1.15,2013-01-12 15:13:00,
2013-01-12 09:16:00,33.8,30.3,29.92,WSW,238,5.0,7.0,87,0.00,,,0.00,Wunderground v.1.15,2013-01-12 15:16:00,
2013-01-12 09:17:00,33.8,30.3,29.92,SW,236,5.0,7.0,87,0.00,,,0.00,Wunderground v.1.15,2013-01-12 15:17:00,
2013-01-12 09:18:00,33.8,30.3,29.92,SW,236,5.0,7.0,87,0.00,,,0.00,Wunderground v.1.15,2013-01-12 15:18:00,
2013-01-12 09:21:00,33.8,30.3,29.93,SW,229,5.0,8.0,87,0.00,,,0.00,Wunderground v.1.15,2013-01-12 15:21:00,
2013-01-12 09:22:00,33.8,30.3,29.93,SW,232,5.0,8.0,87,0.00,,,0.00,Wunderground v.1.15,2013-01-12 15:22:00,
2013-01-12 09:25:00,33.7,30.2,29.93,SW,228,6.0,8.0,87,0.00,,,0.00,Wunderground v.1.15,2013-01-12 15:25:00,
2013-01-12 09:26:00,33.7,30.2,29.93,SW,231,6.0,8.0,87,0.00,,,0.00,Wunderground v.1.15,2013-01-12 15:26:00,
2013-01-12 09:28:00,33.6,30.1,29.94,SW,215,6.0,8.0,87,0.00,,,0.00,Wunderground v.1.15,2013-01-12 15:28:00,
2013-01-12 09:30:00,33.6,30.1,29.94,SW,231,6.0,6.0,87,0.00,,,0.00,Wunderground v.1.15,2013-01-12 15:30:00,
2013-01-12 09:32:00,33.5,30.0,29.94,SSW,209,6.0,6.0,87,0.00,,,0.00,Wunderground v.1.15,2013-01-12 15:32:00,
2013-01-12 09:33:00,33.5,30.0,29.94,WSW,254,6.0,6.0,87,0.00,,,0.00,Wunderground v.1.15,2013-01-12 15:33:00,
2013-01-12 09:34:00,33.5,30.0,29.94,WSW,240,5.0,7.0,87,0.00,,,0.00,Wunderground v.1.15,2013-01-12 15:34:00,
2013-01-12 09:37:00,33.5,30.0,29.95,WSW,240,6.0,8.0,87,0.00,,,0.00,Wunderground v.1.15,2013-01-12 15:37:00,
2013-01-12 09:38:00,33.5,30.0,29.95,SW,229,6.0,8.0,87,0.00,,,0.00,Wunderground v.1.15,2013-01-12 15:38:00,
2013-01-12 09:39:00,33.4,29.9,29.95,WSW,251,6.0,8.0,87,0.00,,,0.00,Wunderground v.1.15,2013-01-12 15:39:00,
2013-01-12 09:43:00,33.4,29.9,29.95,WSW,242,7.0,9.0,87,0.00,,,0.00,Wunderground v.1.15,2013-01-12 15:43:00,
2013-01-12 09:44:00,33.4,29.7,29.95,SW,230,7.0,9.0,86,0.00,,,0.00,Wunderground v.1.15,2013-01-12 15:44:00,
2013-01-12 09:45:00,33.4,29.7,29.95,WSW,244,7.0,9.0,86,0.00,,,0.00,Wunderground v.1.15,2013-01-12 15:45:00,
2013-01-12 09:46:00,33.4,29.9,29.95,WSW,244,7.0,9.0,87,0.00,,,0.00,Wunderground v.1.15,2013-01-12 15:46:00,
2013-01-12 09:49:00,33.4,29.9,29.95,SW,232,6.0,9.0,87,0.00,,,0.00,Wunderground v.1.15,2013-01-12 15:49:00,
2013-01-12 09:50:00,33.4,29.9,29.95,SW,234,6.0,6.0,87,0.00,,,0.00,Wunderground v.1.15,2013-01-12 15:50:00,
2013-01-12 09:51:00,33.4,29.9,29.95,SW,219,6.0,6.0,87,0.00,,,0.00,Wunderground v.1.15,2013-01-12 15:51:00,
2013-01-12 09:52:00,33.4,29.9,29.95,WSW,239,6.0,7.0,87,0.00,,,0.00,Wunderground v.1.15,2013-01-12 15:52:00,
2013-01-12 09:54:00,33.4,29.9,29.95,West,269,6.0,7.0,87,0.00,,,0.00,Wunderground v.1.15,2013-01-12 15:54:00,
2013-01-12 09:56:00,33.4,29.7,29.95,WSW,242,6.0,7.0,86,0.00,,,0.00,Wunderground v.1.15,2013-01-12 15:56:00,
2013-01-12 09:57:00,33.4,29.7,29.95,WSW,244,6.0,7.0,86,0.00,,,0.00,Wunderground v.1.15,2013-01-12 15:57:00,
2013-01-12 09:59:00,33.3,29.3,29.95,WSW,243,6.0,7.0,85,0.00,,,0.00,Wunderground v.1.15,2013-01-12 15:59:00,
2013-01-12 10:00:00,33.3,29.0,29.95,SW,233,6.0,6.0,84,0.00,,,0.00,Wunderground v.1.15,2013-01-12 16:00:00,
2013-01-12 10:02:00,33.3,29.0,29.95,WSW,243,6.0,6.0,84,0.00,,,0.00,Wunderground v.1.15,2013-01-12 16:02:00,
2013-01-12 10:05:00,33.2,28.9,29.95,SW,233,6.0,6.0,84,0.00,,,0.00,Wunderground v.1.15,2013-01-12 16:05:00,
2013-01-12 10:06:00,33.2,28.9,29.95,WSW,250,6.0,6.0,84,0.00,,,0.00,Wunderground v.1.15,2013-01-12 16:06:00,
2013-01-12 10:09:00,33.1,28.8,29.95,SW,231,5.0,9.0,84,0.00,,,0.00,Wunderground v.1.15,2013-01-12 16:09:00,
2013-01-12 10:11:00,33.1,28.8,29.95,West,273,5.0,5.0,84,0.00,,,0.00,Wunderground v.1.15,2013-01-12 16:11:00,
2013-01-12 10:13:00,33.1,28.8,29.95,WSW,245,6.0,6.0,84,0.00,,,0.00,Wunderground v.1.15,2013-01-12 16:13:00,
2013-01-12 10:14:00,33.1,28.8,29.95,SW,231,6.0,6.0,84,0.00,,,0.00,Wunderground v.1.15,2013-01-12 16:14:00,
2013-01-12 10:17:00,33.1,28.8,29.96,WSW,252,6.0,6.0,84,0.00,,,0.00,Wunderground v.1.15,2013-01-12 16:17:00,
2013-01-12 10:18:00,33.1,29.1,29.96,SW,226,6.0,6.0,85,0.00,,,0.00,Wunderground v.1.15,2013-01-12 16:18:00,
2013-01-12 10:22:00,33.1,29.1,29.96,WSW,244,6.0,11.0,85,0.00,,,0.00,Wunderground v.1.15,2013-01-12 16:22:00,
2013-01-12 10:24:00,33.1,29.1,29.96,SW,234,7.0,11.0,85,0.00,,,0.00,Wunderground v.1.15,2013-01-12 16:24:00,
2013-01-12 10:25:00,33.1,29.1,29.97,WSW,250,7.0,11.0,85,0.00,,,0.00,Wunderground v.1.15,2013-01-12 16:25:00,
2013-01-12 10:29:00,33.1,29.1,29.97,SW,227,7.0,11.0,85,0.00,,,0.00,Wunderground v.1.15,2013-01-12 16:29:00,
2013-01-12 10:30:00,33.0,29.0,29.97,SW,234,8.0,9.0,85,0.00,,,0.00,Wunderground v.1.15,2013-01-12 16:30:00,
2013-01-12 10:31:00,33.0,29.0,29.97,SW,229,8.0,9.0,85,0.00,,,0.00,Wunderground v.1.15,2013-01-12 16:31:00,
2013-01-12 10:32:00,33.0,28.7,29.97,SW,236,8.0,9.0,84,0.00,,,0.00,Wunderground v.1.15,2013-01-12 16:32:00,
2013-01-12 10:35:00,32.9,28.9,29.97,WSW,240,7.0,9.0,85,0.00,,,0.00,Wunderground v.1.15,2013-01-12 16:35:00,
2013-01-12 10:37:00,32.9,28.9,29.97,SW,215,7.0,9.0,85,0.00,,,0.00,Wunderground v.1.15,2013-01-12 16:37:00,
2013-01-12 10:38:00,32.9,28.9,29.98,SW,223,7.0,9.0,85,0.00,,,0.00,Wunderground v.1.15,2013-01-12 16:38:00,
2013-01-12 10:41:00,32.9,28.9,29.97,WSW,250,6.0,6.0,85,0.00,,,0.00,Wunderground v.1.15,2013-01-12 16:41:00,
2013-01-12 10:43:00,33.0,28.7,29.97,WSW,242,6.0,6.0,84,0.00,,,0.00,Wunderground v.1.15,2013-01-12 16:43:00,
2013-01-12 10:44:00,33.0,28.7,29.97,WSW,240,6.0,6.0,84,0.00,,,0.00,Wunderground v.1.15,2013-01-12 16:44:00,
2013-01-12 10:48:00,33.4,29.1,29.97,West,271,5.0,7.0,84,0.00,,,0.00,Wunderground v.1.15,2013-01-12 16:48:00,
2013-01-12 10:49:00,33.5,29.2,29.96,WSW,246,5.0,7.0,84,0.00,,,0.00,Wunderground v.1.15,2013-01-12 16:49:00,
2013-01-12 10:53:00,33.9,29.0,29.97,WSW,252,5.0,6.0,82,0.00,,,0.00,Wunderground v.1.15,2013-01-12 16:53:00,
2013-01-12 10:54:00,34.0,28.8,29.97,SSW,200,5.0,10.0,81,0.00,,,0.00,Wunderground v.1.15,2013-01-12 16:54:00,
2013-01-12 10:55:00,33.9,28.4,29.97,SW,234,5.0,10.0,80,0.00,,,0.00,Wunderground v.1.15,2013-01-12 16:55:00,
2013-01-12 10:58:00,33.8,28.0,29.96,South,170,5.0,10.0,79,0.00,,,0.00,Wunderground v.1.15,2013-01-12 16:58:00,
2013-01-12 10:59:00,33.8,28.0,29.97,SW,214,6.0,10.0,79,0.00,,,0.00,Wunderground v.1.15,2013-01-12 16:59:00,
2013-01-12 11:00:00,33.6,27.8,29.96,West,267,6.0,6.0,79,0.00,,,0.00,Wunderground v.1.15,2013-01-12 17:00:00,
2013-01-12 11:04:00,33.3,27.8,29.96,SW,215,6.0,7.0,80,0.00,,,0.00,Wunderground v.1.15,2013-01-12 17:04:00,
2013-01-12 11:05:00,33.2,27.7,29.96,WSW,253,6.0,7.0,80,0.00,,,0.00,Wunderground v.1.15,2013-01-12 17:05:00,
2013-01-12 11:06:00,33.2,28.0,29.96,WSW,247,6.0,7.0,81,0.00,,,0.00,Wunderground v.1.15,2013-01-12 17:06:00,
2013-01-12 11:09:00,33.2,28.0,29.97,SW,226,5.0,7.0,81,0.00,,,0.00,Wunderground v.1.15,2013-01-12 17:09:00,
2013-01-12 11:11:00,33.2,28.0,29.97,SW,232,5.0,6.0,81,0.00,,,0.00,Wunderground v.1.15,2013-01-12 17:11:00,
2013-01-12 11:12:00,33.1,27.6,29.96,WSW,249,5.0,7.0,80,0.00,,,0.00,Wunderground v.1.15,2013-01-12 17:12:00,
2013-01-12 11:15:00,33.0,27.5,29.97,WSW,245,5.0,7.0,80,0.00,,,0.00,Wunderground v.1.15,2013-01-12 17:15:00,
2013-01-12 11:16:00,33.0,27.5,29.97,WSW,244,5.0,7.0,80,0.00,,,0.00,Wunderground v.1.15,2013-01-12 17:16:00,
2013-01-12 11:19:00,32.9,27.1,29.97,WSW,243,6.0,7.0,79,0.00,,,0.00,Wunderground v.1.15,2013-01-12 17:19:00,
2013-01-12 11:20:00,32.9,27.4,29.96,WSW,246,6.0,7.0,80,0.00,,,0.00,Wunderground v.1.15,2013-01-12 17:20:00,
2013-01-12 11:21:00,32.9,27.4,29.96,WSW,248,6.0,7.0,80,0.00,,,0.00,Wunderground v.1.15,2013-01-12 17:21:00,
2013-01-12 11:24:00,32.8,27.6,29.96,WSW,241,6.0,7.0,81,0.00,,,0.00,Wunderground v.1.15,2013-01-12 17:24:00,
2013-01-12 11:27:00,32.8,27.6,29.95,WSW,250,6.0,7.0,81,0.00,,,0.00,Wunderground v.1.15,2013-01-12 17:27:00,
2013-01-12 11:28:00,32.8,27.6,29.95,WSW,244,6.0,7.0,81,0.00,,,0.00,Wunderground v.1.15,2013-01-12 17:28:00,
2013-01-12 11:30:00,32.8,27.3,29.95,WSW,241,6.0,6.0,80,0.00,,,0.00,Wunderground v.1.15,2013-01-12 17:30:00,
2013-01-12 11:33:00,32.8,27.6,29.96,SW,235,5.0,6.0,81,0.00,,,0.00,Wunderground v.1.15,2013-01-12 17:33:00,
2013-01-12 11:34:00,32.7,27.5,29.96,WSW,237,5.0,6.0,81,0.00,,,0.00,Wunderground v.1.15,2013-01-12 17:34:00,
2013-01-12 11:36:00,32.7,27.5,29.95,WSW,244,5.0,6.0,81,0.00,,,0.00,Wunderground v.1.15,2013-01-12 17:36:00,
2013-01-12 11:37:00,32.7,27.5,29.95,West,263,5.0,6.0,81,0.00,,,0.00,Wunderground v.1.15,2013-01-12 17:37:00,
2013-01-12 11:40:00,32.7,27.5,29.96,WSW,242,5.0,6.0,81,0.00,,,0.00,Wunderground v.1.15,2013-01-12 17:40:00,
2013-01-12 11:43:00,32.6,27.4,29.95,WSW,237,5.0,6.0,81,0.00,,,0.00,Wunderground v.1.15,2013-01-12 17:43:00,
2013-01-12 11:45:00,32.6,27.4,29.95,SW,231,5.0,6.0,81,0.00,,,0.00,Wunderground v.1.15,2013-01-12 17:45:00,
2013-01-12 11:46:00,32.6,27.4,29.96,SW,235,5.0,6.0,81,0.00,,,0.00,Wunderground v.1.15,2013-01-12 17:46:00,
2013-01-12 11:50:00,32.5,27.3,29.96,SW,232,6.0,6.0,81,0.00,,,0.00,Wunderground v.1.15,2013-01-12 17:50:00,
2013-01-12 11:51:00,32.4,27.2,29.96,WSW,240,6.0,11.0,81,0.00,,,0.00,Wunderground v.1.15,2013-01-12 17:51:00,
2013-01-12 11:52:00,32.4,26.9,29.96,WSW,244,6.0,11.0,80,0.00,,,0.00,Wunderground v.1.15,2013-01-12 17:52:00,
2013-01-12 11:55:00,32.2,26.4,29.96,WSW,244,7.0,11.0,79,0.00,,,0.00,Wunderground v.1.15,2013-01-12 17:55:00,
2013-01-12 11:56:00,32.1,26.3,29.96,WSW,248,6.0,11.0,79,0.00,,,0.00,Wunderground v.1.15,2013-01-12 17:56:00,
2013-01-12 11:58:00,32.0,26.2,29.96,West,263,6.0,11.0,79,0.00,,,0.00,Wunderground v.1.15,2013-01-12 17:58:00,
2013-01-12 11:59:00,31.9,26.1,29.97,SW,232,6.0,11.0,79,0.00,,,0.00,Wunderground v.1.15,2013-01-12 17:59:00,
2013-01-12 12:00:00,31.9,25.8,29.97,SW,223,6.0,6.0,78,0.00,,,0.00,Wunderground v.1.15,2013-01-12 18:00:00,
2013-01-12 12:04:00,31.7,25.6,29.97,SW,236,6.0,10.0,78,0.00,,,0.00,Wunderground v.1.15,2013-01-12 18:04:00,
2013-01-12 12:05:00,31.7,25.6,29.97,WSW,257,6.0,10.0,78,0.00,,,0.00,Wunderground v.1.15,2013-01-12 18:05:00,
2013-01-12 12:06:00,31.7,25.3,29.97,West,265,6.0,10.0,77,0.00,,,0.00,Wunderground v.1.15,2013-01-12 18:06:00,
2013-01-12 12:09:00,31.6,25.2,29.97,WSW,242,6.0,10.0,77,0.00,,,0.00,Wunderground v.1.15,2013-01-12 18:09:00,
2013-01-12 12:12:00,31.5,25.4,29.96,WSW,249,6.0,7.0,78,0.00,,,0.00,Wunderground v.1.15,2013-01-12 18:12:00,
2013-01-12 12:13:00,31.4,25.6,29.96,West,262,6.0,7.0,79,0.00,,,0.00,Wunderground v.1.15,2013-01-12 18:13:00,
2013-01-12 12:15:00,31.4,25.3,29.96,West,260,6.0,7.0,78,0.00,,,0.00,Wunderground v.1.15,2013-01-12 18:15:00,
2013-01-12 12:18:00,31.4,25.3,29.96,WSW,240,6.0,7.0,78,0.00,,,0.00,Wunderground v.1.15,2013-01-12 18:18:00,
2013-01-12 12:20:00,31.4,25.3,29.96,SSW,210,6.0,6.0,78,0.00,,,0.00,Wunderground v.1.15,2013-01-12 18:20:00,
2013-01-12 12:21:00,31.4,25.6,29.96,SSW,213,6.0,6.0,79,0.00,,,0.00,Wunderground v.1.15,2013-01-12 18:21:00,
2013-01-12 12:23:00,31.4,25.9,29.96,WSW,241,6.0,6.0,80,0.00,,,0.00,Wunderground v.1.15,2013-01-12 18:23:00,
2013-01-12 12:24:00,31.4,25.9,29.96,WSW,246,6.0,6.0,80,0.00,,,0.00,Wunderground v.1.15,2013-01-12 18:24:00,
2013-01-12 12:25:00,31.5,26.0,29.95,SW,231,6.0,8.0,80,0.00,,,0.00,Wunderground v.1.15,2013-01-12 18:25:00,
2013-01-12 12:28:00,31.6,26.1,29.96,WSW,240,5.0,8.0,80,0.00,,,0.00,Wunderground v.1.15,2013-01-12 18:28:00,
2013-01-12 12:30:00,31.7,25.9,29.96,WSW,242,5.0,5.0,79,0.00,,,0.00,Wunderground v.1.15,2013-01-12 18:30:00,
2013-01-12 12:31:00,31.7,25.9,29.96,SSW,207,5.0,12.0,79,0.00,,,0.00,Wunderground v.1.15,2013-01-12 18:31:00,
2013-01-12 12:33:00,31.7,25.6,29.96,WSW,243,6.0,12.0,78,0.00,,,0.00,Wunderground v.1.15,2013-01-12 18:33:00,
2013-01-12 12:35:00,31.8,25.7,29.96,West,273,6.0,13.0,78,0.00,,,0.00,Wunderground v.1.15,2013-01-12 18:35:00,
2013-01-12 12:36:00,31.7,25.3,29.96,WSW,238,6.0,13.0,77,0.00,,,0.00,Wunderground v.1.15,2013-01-12 18:36:00,
2013-01-12 12:37:00,31.7,25.3,29.96,SW,236,7.0,13.0,77,0.00,,,0.00,Wunderground v.1.15,2013-01-12 18:37:00,
2013-01-12 12:41:00,31.6,25.5,29.97,WSW,240,7.0,7.0,78,0.00,,,0.00,Wunderground v.1.15,2013-01-12 18:41:00,
2013-01-12 12:43:00,31.5,25.4,29.97,WSW,244,7.0,7.0,78,0.00,,,0.00,Wunderground v.1.15,2013-01-12 18:43:00,
2013-01-12 12:45:00,31.5,25.7,29.98,West,259,7.0,12.0,79,0.00,,,0.00,Wunderground v.1.15,2013-01-12 18:45:00,
2013-01-12 12:50:00,31.4,25.6,29.98,WSW,243,6.0,6.0,79,0.00,,,0.00,Wunderground v.1.15,2013-01-12 18:50:00,
2013-01-12 12:51:00,31.4,25.6,29.98,WNW,288,6.0,6.0,79,0.00,,,0.00,Wunderground v.1.15,2013-01-12 18:51:00,
2013-01-12 12:55:00,31.4,25.9,29.97,WSW,242,6.0,6.0,80,0.00,,,0.00,Wunderground v.1.15,2013-01-12 18:55:00,
2013-01-12 12:56:00,31.4,25.9,29.97,WSW,238,6.0,6.0,80,0.00,,,0.00,Wunderground v.1.15,2013-01-12 18:56:00,
2013-01-12 12:58:00,31.5,26.0,29.97,WSW,250,6.0,6.0,80,0.00,,,0.00,Wunderground v.1.15,2013-01-12 18:58:00,
2013-01-12 12:59:00,31.6,26.1,29.97,WSW,251,5.0,6.0,80,0.00,,,0.00,Wunderground v.1.15,2013-01-12 18:59:00,
2013-01-12 13:04:00,31.7,26.2,29.96,WSW,242,4.0,6.0,80,0.00,,,0.00,Wunderground v.1.15,2013-01-12 19:04:00,
2013-01-12 13:05:00,31.7,26.2,29.96,WSW,242,4.0,6.0,80,0.00,,,0.00,Wunderground v.1.15,2013-01-12 19:05:00,
2013-01-12 13:08:00,31.8,26.3,29.96,WSW,242,4.0,6.0,80,0.00,,,0.00,Wunderground v.1.15,2013-01-12 19:08:00,
2013-01-12 13:10:00,31.7,26.2,29.96,WSW,248,4.0,7.0,80,0.00,,,0.00,Wunderground v.1.15,2013-01-12 19:10:00,
2013-01-12 13:13:00,31.7,26.2,29.95,SW,231,4.0,7.0,80,0.00,,,0.00,Wunderground v.1.15,2013-01-12 19:13:00,
2013-01-12 13:14:00,31.7,26.2,29.95,WSW,250,5.0,7.0,80,0.00,,,0.00,Wunderground v.1.15,2013-01-12 19:14:00,
2013-01-12 13:17:00,31.7,26.2,29.96,WSW,238,5.0,7.0,80,0.00,,,0.00,Wunderground v.1.15,2013-01-12 19:17:00,
2013-01-12 13:20:00,31.6,26.1,29.96,SW,231,5.0,7.0,80,0.00,,,0.00,Wunderground v.1.15,2013-01-12 19:20:00,
2013-01-12 13:22:00,31.6,26.1,29.96,SW,219,5.0,7.0,80,0.00,,,0.00,Wunderground v.1.15,2013-01-12 19:22:00,
2013-01-12 13:24:00,31.6,26.1,29.96,WSW,257,5.0,7.0,80,0.00,,,0.00,Wunderground v.1.15,2013-01-12 19:24:00,
2013-01-12 13:25:00,31.6,26.1,29.96,WNW,288,5.0,7.0,80,0.00,,,0.00,Wunderground v.1.15,2013-01-12 19:25:00,
2013-01-12 13:27:00,31.6,26.1,29.95,West,273,5.0,10.0,80,0.00,,,0.00,Wunderground v.1.15,2013-01-12 19:27:00,
2013-01-12 13:30:00,31.5,26.0,29.96,WSW,252,5.0,5.0,80,0.00,,,0.00,Wunderground v.1.15,2013-01-12 19:30:00,
2013-01-12 13:33:00,31.5,26.0,29.96,West,260,5.0,7.0,80,0.00,,,0.00,Wunderground v.1.15,2013-01-12 19:33:00,
2013-01-12 13:34:00,31.5,26.0,29.96,WSW,254,5.0,7.0,80,0.00,,,0.00,Wunderground v.1.15,2013-01-12 19:34:00,
2013-01-12 13:37:00,31.5,26.0,29.96,West,259,4.0,7.0,80,0.00,,,0.00,Wunderground v.1.15,2013-01-12 19:37:00,
2013-01-12 13:39:00,31.5,26.0,29.97,WSW,253,4.0,7.0,80,0.00,,,0.00,Wunderground v.1.15,2013-01-12 19:39:00,
2013-01-12 13:41:00,31.5,26.0,29.97,WSW,238,4.0,7.0,80,0.00,,,0.00,Wunderground v.1.15,2013-01-12 19:41:00,
2013-01-12 13:42:00,31.5,26.0,29.97,WSW,238,4.0,7.0,80,0.00,,,0.00,Wunderground v.1.15,2013-01-12 19:42:00,
2013-01-12 13:45:00,31.5,26.0,29.97,SW,234,4.0,7.0,80,0.00,,,0.00,Wunderground v.1.15,2013-01-12 19:45:00,
2013-01-12 13:48:00,31.5,26.0,29.97,WSW,241,5.0,7.0,80,0.00,,,0.00,Wunderground v.1.15,2013-01-12 19:48:00,
2013-01-12 13:52:00,31.5,26.3,29.96,WSW,257,4.0,6.0,81,0.00,,,0.00,Wunderground v.1.15,2013-01-12 19:52:00,
2013-01-12 13:53:00,31.5,26.0,29.96,WSW,257,4.0,6.0,80,0.00,,,0.00,Wunderground v.1.15,2013-01-12 19:53:00,
2013-01-12 13:58:00,31.5,26.3,29.96,West,274,3.0,6.0,81,0.00,,,0.00,Wunderground v.1.15,2013-01-12 19:58:00,
2013-01-12 13:59:00,31.6,26.4,29.96,SW,218,3.0,6.0,81,0.00,,,0.00,Wunderground v.1.15,2013-01-12 19:59:00,
2013-01-12 14:00:00,31.6,26.1,29.96,WSW,240,3.0,3.0,80,0.00,,,0.00,Wunderground v.1.15,2013-01-12 20:00:00,
2013-01-12 14:04:00,31.7,26.2,29.95,NW,309,2.0,3.0,80,0.00,,,0.00,Wunderground v.1.15,2013-01-12 20:04:00,
2013-01-12 14:05:00,31.7,25.9,29.95,NNW,336,2.0,3.0,79,0.00,,,0.00,Wunderground v.1.15,2013-01-12 20:05:00,
2013-01-12 14:06:00,31.6,25.8,29.95,NNW,331,2.0,3.0,79,0.00,,,0.00,Wunderground v.1.15,2013-01-12 20:06:00,
2013-01-12 14:09:00,31.6,25.8,29.95,WSW,241,2.0,3.0,79,0.00,,,0.00,Wunderground v.1.15,2013-01-12 20:09:00,
2013-01-12 14:10:00,31.7,26.2,29.95,WSW,255,2.0,2.0,80,0.00,,,0.00,Wunderground v.1.15,2013-01-12 20:10:00,
2013-01-12 14:13:00,31.7,26.2,29.95,WSW,245,3.0,4.0,80,0.00,,,0.00,Wunderground v.1.15,2013-01-12 20:13:00,
2013-01-12 14:14:00,31.8,26.3,29.95,WSW,240,3.0,4.0,80,0.00,,,0.00,Wunderground v.1.15,2013-01-12 20:14:00,
2013-01-12 14:15:00,31.9,26.4,29.95,West,263,3.0,7.0,80,0.00,,,0.00,Wunderground v.1.15,2013-01-12 20:15:00,
2013-01-12 14:19:00,32.0,26.5,29.95,WSW,243,3.0,7.0,80,0.00,,,0.00,Wunderground v.1.15,2013-01-12 20:19:00,
2013-01-12 14:20:00,32.0,26.2,29.95,WSW,246,3.0,3.0,79,0.00,,,0.00,Wunderground v.1.15,2013-01-12 20:20:00,
2013-01-12 14:23:00,32.0,26.2,29.97,WSW,248,3.0,7.0,79,0.00,,,0.00,Wunderground v.1.15,2013-01-12 20:23:00,
2013-01-12 14:26:00,32.0,26.2,29.97,WNW,301,3.0,7.0,79,0.00,,,0.00,Wunderground v.1.15,2013-01-12 20:26:00,
2013-01-12 14:27:00,32.0,26.2,29.96,WSW,250,3.0,7.0,79,0.00,,,0.00,Wunderground v.1.15,2013-01-12 20:27:00,
2013-01-12 14:28:00,31.9,26.1,29.96,WSW,250,3.0,7.0,79,0.00,,,0.00,Wunderground v.1.15,2013-01-12 20:28:00,
2013-01-12 14:30:00,31.9,26.1,29.97,SW,227,3.0,3.0,79,0.00,,,0.00,Wunderground v.1.15,2013-01-12 20:30:00,
2013-01-12 14:31:00,31.9,26.1,29.97,SW,228,3.0,3.0,79,0.00,,,0.00,Wunderground v.1.15,2013-01-12 20:31:00,
2013-01-12 14:33:00,31.7,25.9,29.97,WSW,246,3.0,3.0,79,0.00,,,0.00,Wunderground v.1.15,2013-01-12 20:33:00,
2013-01-12 14:37:00,31.7,25.9,29.97,WSW,246,3.0,7.0,79,0.00,,,0.00,Wunderground v.1.15,2013-01-12 20:37:00,
2013-01-12 14:39:00,31.6,25.8,29.98,West,281,3.0,7.0,79,0.00,,,0.00,Wunderground v.1.15,2013-01-12 20:39:00,
2013-01-12 14:42:00,31.4,25.6,29.98,West,281,2.0,3.0,79,0.00,,,0.00,Wunderground v.1.15,2013-01-12 20:42:00,
2013-01-12 14:44:00,31.3,25.2,29.98,West,259,2.0,6.0,78,0.00,,,0.00,Wunderground v.1.15,2013-01-12 20:44:00,
2013-01-12 14:45:00,31.3,25.2,29.98,WNW,297,2.0,6.0,78,0.00,,,0.00,Wunderground v.1.15,2013-01-12 20:45:00,
2013-01-12 14:47:00,31.2,25.4,29.97,NW,316,2.0,6.0,79,0.00,,,0.00,Wunderground v.1.15,2013-01-12 20:47:00,
2013-01-12 14:49:00,31.1,25.3,29.97,NNW,328,2.0,6.0,79,0.00,,,0.00,Wunderground v.1.15,2013-01-12 20:49:00,
2013-01-12 14:50:00,31.0,25.2,29.98,WSW,245,3.0,3.0,79,0.00,,,0.00,Wunderground v.1.15,2013-01-12 20:50:00,
2013-01-12 14:51:00,31.0,25.2,29.98,WSW,257,3.0,3.0,79,0.00,,,0.00,Wunderground v.1.15,2013-01-12 20:51:00,
2013-01-12 14:53:00,30.9,24.8,29.98,SSW,208,3.0,3.0,78,0.00,,,0.00,Wunderground v.1.15,2013-01-12 20:53:00,
2013-01-12 14:56:00,30.8,25.1,29.98,West,272,3.0,4.0,79,0.00,,,0.00,Wunderground v.1.15,2013-01-12 20:56:00,
2013-01-12 15:00:00,30.6,24.9,29.98,West,263,3.0,3.0,79,0.00,,,0.00,Wunderground v.1.15,2013-01-12 21:00:00,
2013-01-12 15:01:00,30.5,24.8,29.98,WNW,290,2.0,3.0,79,0.00,,,0.00,Wunderground v.1.15,2013-01-12 21:01:00,
2013-01-12 15:03:00,30.5,24.8,29.98,WSW,240,3.0,3.0,79,0.00,,,0.00,Wunderground v.1.15,2013-01-12 21:03:00,
2013-01-12 15:06:00,30.5,25.1,29.98,West,281,3.0,3.0,80,0.00,,,0.00,Wunderground v.1.15,2013-01-12 21:06:00,
2013-01-12 15:07:00,30.5,25.1,29.98,SW,229,3.0,4.0,80,0.00,,,0.00,Wunderground v.1.15,2013-01-12 21:07:00,
2013-01-12 15:09:00,30.5,25.1,29.98,SW,227,3.0,4.0,80,0.00,,,0.00,Wunderground v.1.15,2013-01-12 21:09:00,
2013-01-12 15:10:00,30.5,25.4,29.99,WSW,250,3.0,3.0,81,0.00,,,0.00,Wunderground v.1.15,2013-01-12 21:10:00,
2013-01-12 15:12:00,30.5,25.4,29.99,West,259,3.0,3.0,81,0.00,,,0.00,Wunderground v.1.15,2013-01-12 21:12:00,
2013-01-12 15:14:00,30.4,25.0,29.99,WSW,253,3.0,3.0,80,0.00,,,0.00,Wunderground v.1.15,2013-01-12 21:14:00,
2013-01-12 15:15:00,30.4,24.7,29.99,WSW,254,3.0,3.0,79,0.00,,,0.00,Wunderground v.1.15,2013-01-12 21:15:00,
2013-01-12 15:19:00,30.2,24.5,30.00,NW,325,2.0,5.0,79,0.00,,,0.00,Wunderground v.1.15,2013-01-12 21:19:00,
2013-01-12 15:20:00,30.1,24.4,30.00,WSW,247,2.0,2.0,79,0.00,,,0.00,Wunderground v.1.15,2013-01-12 21:20:00,
2013-01-12 15:22:00,30.1,24.4,30.00,WSW,240,2.0,2.0,79,0.00,,,0.00,Wunderground v.1.15,2013-01-12 21:22:00,
2013-01-12 15:25:00,30.0,24.3,30.01,West,266,2.0,3.0,79,0.00,,,0.00,Wunderground v.1.15,2013-01-12 21:25:00,
2013-01-12 15:26:00,30.0,24.3,30.01,West,266,2.0,3.0,79,0.00,,,0.00,Wunderground v.1.15,2013-01-12 21:26:00,
2013-01-12 15:30:00,29.9,24.5,30.01,WSW,241,2.0,2.0,80,0.00,,,0.00,Wunderground v.1.15,2013-01-12 21:30:00,
2013-01-12 15:31:00,29.9,24.5,30.01,WSW,241,2.0,2.0,80,0.00,,,0.00,Wunderground v.1.15,2013-01-12 21:31:00,
2013-01-12 15:33:00,29.9,24.5,30.01,WSW,239,2.0,4.0,80,0.00,,,0.00,Wunderground v.1.15,2013-01-12 21:33:00,
2013-01-12 15:37:00,29.8,24.7,30.02,WSW,248,3.0,5.0,81,0.00,,,0.00,Wunderground v.1.15,2013-01-12 21:37:00,
2013-01-12 15:38:00,29.8,24.7,30.02,WSW,244,3.0,5.0,81,0.00,,,0.00,Wunderground v.1.15,2013-01-12 21:38:00,
2013-01-12 15:39:00,29.8,24.7,30.02,WSW,244,3.0,5.0,81,0.00,,,0.00,Wunderground v.1.15,2013-01-12 21:39:00,
2013-01-12 15:41:00,29.8,24.7,30.02,WSW,251,3.0,6.0,81,0.00,,,0.00,Wunderground v.1.15,2013-01-12 21:41:00,
2013-01-12 15:44:00,29.8,24.4,30.01,WNW,290,4.0,6.0,80,0.00,,,0.00,Wunderground v.1.15,2013-01-12 21:44:00,
2013-01-12 15:46:00,29.7,24.0,30.01,West,277,4.0,11.0,79,0.00,,,0.00,Wunderground v.1.15,2013-01-12 21:46:00,
2013-01-12 15:47:00,29.7,24.0,30.01,West,261,4.0,11.0,79,0.00,,,0.00,Wunderground v.1.15,2013-01-12 21:47:00,
2013-01-12 15:52:00,29.6,23.9,30.01,NW,309,3.0,4.0,79,0.00,,,0.00,Wunderground v.1.15,2013-01-12 21:52:00,
2013-01-12 15:53:00,29.6,23.9,30.00,NW,307,3.0,4.0,79,0.00,,,0.00,Wunderground v.1.15,2013-01-12 21:53:00,
2013-01-12 15:54:00,29.6,24.2,30.01,WNW,295,3.0,4.0,80,0.00,,,0.00,Wunderground v.1.15,2013-01-12 21:54:00,
2013-01-12 15:58:00,29.6,24.5,30.02,SW,229,3.0,7.0,81,0.00,,,0.00,Wunderground v.1.15,2013-01-12 21:58:00,
2013-01-12 15:59:00,29.6,24.5,30.02,NNW,341,3.0,7.0,81,0.00,,,0.00,Wunderground v.1.15,2013-01-12 21:59:00,
2013-01-12 16:00:00,29.5,24.4,30.01,SSW,197,3.0,3.0,81,0.00,,,0.00,Wunderground v.1.15,2013-01-12 22:00:00,
2013-01-12 16:05:00,29.4,24.3,30.01,WNW,298,3.0,6.0,81,0.00,,,0.00,Wunderground v.1.15,2013-01-12 22:05:00,
2013-01-12 16:06:00,29.4,24.3,30.01,WNW,296,3.0,6.0,81,0.00,,,0.00,Wunderground v.1.15,2013-01-12 22:06:00,
2013-01-12 16:07:00,29.3,24.2,30.01,West,263,3.0,6.0,81,0.00,,,0.00,Wunderground v.1.15,2013-01-12 22:07:00,
2013-01-12 16:10:00,29.2,24.1,30.01,West,264,3.0,3.0,81,0.00,,,0.00,Wunderground v.1.15,2013-01-12 22:10:00,
2013-01-12 16:12:00,29.2,24.1,30.01,WSW,255,3.0,4.0,81,0.00,,,0.00,Wunderground v.1.15,2013-01-12 22:12:00,
2013-01-12 16:13:00,29.2,24.1,30.01,WNW,282,3.0,4.0,81,0.00,,,0.00,Wunderground v.1.15,2013-01-12 22:13:00,
2013-01-12 16:15:00,29.1,24.0,30.01,WSW,258,3.0,4.0,81,0.00,,,0.00,Wunderground v.1.15,2013-01-12 22:15:00,
2013-01-12 16:18:00,29.0,23.9,30.01,WSW,243,3.0,5.0,81,0.00,,,0.00,Wunderground v.1.15,2013-01-12 22:18:00,
2013-01-12 16:19:00,29.0,23.9,30.01,WSW,244,3.0,5.0,81,0.00,,,0.00,Wunderground v.1.15,2013-01-12 22:19:00,
2013-01-12 16:21:00,29.0,23.9,30.00,SW,225,3.0,7.0,81,0.00,,,0.00,Wunderground v.1.15,2013-01-12 22:21:00,
2013-01-12 16:26:00,28.9,23.8,30.00,WSW,256,3.0,7.0,81,0.00,,,0.00,Wunderground v.1.15,2013-01-12 22:26:00,
2013-01-12 16:27:00,28.9,23.8,30.00,WSW,256,3.0,7.0,81,0.00,,,0.00,Wunderground v.1.15,2013-01-12 22:27:00,
2013-01-12 16:29:00,28.9,23.8,30.01,SW,225,2.0,7.0,81,0.00,,,0.00,Wunderground v.1.15,2013-01-12 22:29:00,
2013-01-12 16:30:00,28.9,23.8,30.00,SW,228,2.0,2.0,81,0.00,,,0.00,Wunderground v.1.15,2013-01-12 22:30:00,
2013-01-12 16:32:00,28.9,23.8,30.00,WSW,248,3.0,6.0,81,0.00,,,0.00,Wunderground v.1.15,2013-01-12 22:32:00,
2013-01-12 16:35:00,28.8,23.7,30.00,WSW,248,3.0,6.0,81,0.00,,,0.00,Wunderground v.1.15,2013-01-12 22:35:00,
2013-01-12 16:38:00,28.8,23.7,30.00,WSW,249,3.0,6.0,81,0.00,,,0.00,Wunderground v.1.15,2013-01-12 22:38:00,
2013-01-12 16:40:00,28.8,23.7,30.00,WSW,254,3.0,3.0,81,0.00,,,0.00,Wunderground v.1.15,2013-01-12 22:40:00,
2013-01-12 16:42:00,28.7,23.3,30.00,West,280,3.0,4.0,80,0.00,,,0.00,Wunderground v.1.15,2013-01-12 22:42:00,
2013-01-12 16:44:00,28.7,23.3,29.99,WNW,292,3.0,4.0,80,0.00,,,0.00,Wunderground v.1.15,2013-01-12 22:44:00,
2013-01-12 16:45:00,28.7,23.3,29.99,WNW,292,2.0,4.0,80,0.00,,,0.00,Wunderground v.1.15,2013-01-12 22:45:00,
2013-01-12 16:47:00,28.7,23.0,29.99,WNW,292,2.0,4.0,79,0.00,,,0.00,Wunderground v.1.15,2013-01-12 22:47:00,
2013-01-12 16:48:00,28.6,22.9,29.99,WNW,291,2.0,4.0,79,0.00,,,0.00,Wunderground v.1.15,2013-01-12 22:48:00,
2013-01-12 16:51:00,28.6,22.6,29.99,WNW,283,2.0,5.0,78,0.00,,,0.00,Wunderground v.1.15,2013-01-12 22:51:00,
2013-01-12 16:53:00,28.5,22.5,29.98,WNW,288,2.0,5.0,78,0.00,,,0.00,Wunderground v.1.15,2013-01-12 22:53:00,
2013-01-12 16:54:00,28.5,22.5,29.98,WNW,288,2.0,5.0,78,0.00,,,0.00,Wunderground v.1.15,2013-01-12 22:54:00,
2013-01-12 16:56:00,28.5,22.5,29.98,WNW,288,2.0,5.0,78,0.00,,,0.00,Wunderground v.1.15,2013-01-12 22:56:00,
2013-01-12 16:57:00,28.5,22.8,29.97,WNW,289,1.0,5.0,79,0.00,,,0.00,Wunderground v.1.15,2013-01-12 22:57:00,
2013-01-12 16:58:00,28.5,22.8,29.97,WNW,289,1.0,5.0,79,0.00,,,0.00,Wunderground v.1.15,2013-01-12 22:58:00,
2013-01-12 16:59:00,28.4,22.7,29.98,WNW,289,1.0,5.0,79,0.00,,,0.00,Wunderground v.1.15,2013-01-12 22:59:00,
2013-01-12 17:02:00,28.4,22.7,29.97,WNW,289,1.0,1.0,79,0.00,,,0.00,Wunderground v.1.15,2013-01-12 23:02:00,
2013-01-12 17:03:00,28.4,22.7,29.97,WNW,289,1.0,2.0,79,0.00,,,0.00,Wunderground v.1.15,2013-01-12 23:03:00,
2013-01-12 17:08:00,28.4,23.0,29.97,WNW,290,1.0,3.0,80,0.00,,,0.00,Wunderground v.1.15,2013-01-12 23:08:00,
2013-01-12 17:09:00,28.4,23.0,29.97,WNW,295,1.0,3.0,80,0.00,,,0.00,Wunderground v.1.15,2013-01-12 23:09:00,
2013-01-12 17:12:00,28.4,23.0,29.97,WNW,295,2.0,3.0,80,0.00,,,0.00,Wunderground v.1.15,2013-01-12 23:12:00,
2013-01-12 17:15:00,28.4,23.0,29.97,West,271,2.0,3.0,80,0.00,,,0.00,Wunderground v.1.15,2013-01-12 23:15:00,
2013-01-12 17:17:00,28.4,23.0,29.97,West,270,2.0,3.0,80,0.00,,,0.00,Wunderground v.1.15,2013-01-12 23:17:00,
2013-01-12 17:18:00,28.4,23.0,29.97,West,270,2.0,3.0,80,0.00,,,0.00,Wunderground v.1.15,2013-01-12 23:18:00,
2013-01-12 17:21:00,28.4,23.0,29.98,West,267,2.0,2.0,80,0.00,,,0.00,Wunderground v.1.15,2013-01-12 23:21:00,
2013-01-12 17:24:00,28.3,22.9,29.97,West,269,2.0,2.0,80,0.00,,,0.00,Wunderground v.1.15,2013-01-12 23:24:00,
2013-01-12 17:25:00,28.4,23.0,29.97,West,269,2.0,2.0,80,0.00,,,0.00,Wunderground v.1.15,2013-01-12 23:25:00,
2013-01-12 17:26:00,28.3,22.9,29.97,West,269,1.0,2.0,80,0.00,,,0.00,Wunderground v.1.15,2013-01-12 23:26:00,
2013-01-12 17:28:00,28.3,22.6,29.97,West,268,1.0,2.0,79,0.00,,,0.00,Wunderground v.1.15,2013-01-12 23:28:00,
2013-01-12 17:30:00,28.3,22.9,29.97,West,268,1.0,2.0,80,0.00,,,0.00,Wunderground v.1.15,2013-01-12 23:30:00,
2013-01-12 17:33:00,28.3,22.9,29.96,West,269,1.0,2.0,80,0.00,,,0.00,Wunderground v.1.15,2013-01-12 23:33:00,
2013-01-12 17:34:00,28.3,22.9,29.96,West,269,1.0,2.0,80,0.00,,,0.00,Wunderground v.1.15,2013-01-12 23:34:00,
2013-01-12 17:37:00,28.3,22.9,29.95,West,269,1.0,2.0,80,0.00,,,0.00,Wunderground v.1.15,2013-01-12 23:37:00,
2013-01-12 17:38:00,28.3,22.9,29.95,West,269,1.0,2.0,80,0.00,,,0.00,Wunderground v.1.15,2013-01-12 23:38:00,
2013-01-12 17:40:00,28.3,23.2,29.95,NW,320,2.0,2.0,81,0.00,,,0.00,Wunderground v.1.15,2013-01-12 23:40:00,
2013-01-12 17:44:00,28.3,23.2,29.95,NW,321,2.0,3.0,81,0.00,,,0.00,Wunderground v.1.15,2013-01-12 23:44:00,
2013-01-12 17:45:00,28.3,23.2,29.95,NW,321,2.0,3.0,81,0.00,,,0.00,Wunderground v.1.15,2013-01-12 23:45:00,
2013-01-12 17:46:00,28.3,23.2,29.96,NW,321,2.0,3.0,81,0.00,,,0.00,Wunderground v.1.15,2013-01-12 23:46:00,
2013-01-12 17:50:00,28.3,22.6,29.96,NW,321,2.0,3.0,79,0.00,,,0.00,Wunderground v.1.15,2013-01-12 23:50:00,
2013-01-12 17:51:00,28.3,22.6,29.95,NW,321,2.0,3.0,79,0.00,,,0.00,Wunderground v.1.15,2013-01-12 23:51:00,
2013-01-12 17:52:00,28.3,22.6,29.95,NW,321,3.0,3.0,79,0.00,,,0.00,Wunderground v.1.15,2013-01-12 23:52:00,
2013-01-12 17:53:00,28.3,22.9,29.95,NW,321,3.0,3.0,80,0.00,,,0.00,Wunderground v.1.15,2013-01-12 23:53:00,
2013-01-12 17:58:00,28.2,22.8,29.95,NW,321,2.0,3.0,80,0.00,,,0.00,Wunderground v.1.15,2013-01-12 23:58:00,
2013-01-12 17:59:00,28.2,22.8,29.95,NW,323,2.0,3.0,80,0.00,,,0.00,Wunderground v.1.15,2013-01-12 23:59:00,
2013-01-12 18:03:00,28.2,22.5,29.94,NW,321,2.0,4.0,79,0.00,,,0.00,Wunderground v.1.15,2013-01-13 00:03:00,
2013-01-12 18:04:00,28.2,22.5,29.94,NW,321,2.0,4.0,79,0.00,,,0.00,Wunderground v.1.15,2013-01-13 00:04:00,
2013-01-12 18:08:00,28.1,22.4,29.97,NW,320,2.0,4.0,79,0.00,,,0.00,Wunderground v.1.15,2013-01-13 00:08:00,
2013-01-12 18:09:00,28.1,22.7,29.97,NW,319,2.0,4.0,80,0.00,,,0.00,Wunderground v.1.15,2013-01-13 00:09:00,
2013-01-12 18:10:00,28.1,22.7,29.97,NW,319,2.0,3.0,80,0.00,,,0.00,Wunderground v.1.15,2013-01-13 00:10:00,
2013-01-12 18:12:00,28.1,22.7,29.96,NNW,331,1.0,3.0,80,0.00,,,0.00,Wunderground v.1.15,2013-01-13 00:12:00,
2013-01-12 18:15:00,28.1,22.7,29.96,NW,325,2.0,3.0,80,0.00,,,0.00,Wunderground v.1.15,2013-01-13 00:15:00,
2013-01-12 18:16:00,28.1,22.7,29.96,NW,325,2.0,3.0,80,0.00,,,0.00,Wunderground v.1.15,2013-01-13 00:16:00,
2013-01-12 18:17:00,28.1,22.7,29.97,NW,325,2.0,3.0,80,0.00,,,0.00,Wunderground v.1.15,2013-01-13 00:17:00,
2013-01-12 18:20:00,28.2,23.4,29.96,NW,325,2.0,2.0,82,0.00,,,0.00,Wunderground v.1.15,2013-01-13 00:20:00,
2013-01-12 18:21:00,28.2,23.4,29.96,NW,325,2.0,2.0,82,0.00,,,0.00,Wunderground v.1.15,2013-01-13 00:21:00,
2013-01-12 18:24:00,28.2,23.4,29.96,NW,325,1.0,2.0,82,0.00,,,0.00,Wunderground v.1.15,2013-01-13 00:24:00,
2013-01-12 18:28:00,28.2,23.4,29.97,NW,315,1.0,2.0,82,0.00,,,0.00,Wunderground v.1.15,2013-01-13 00:28:00,
2013-01-12 18:29:00,28.2,23.4,29.97,NW,315,1.0,2.0,82,0.00,,,0.00,Wunderground v.1.15,2013-01-13 00:29:00,
2013-01-12 18:32:00,28.2,23.1,29.98,WNW,290,1.0,4.0,81,0.00,,,0.00,Wunderground v.1.15,2013-01-13 00:32:00,
2013-01-12 18:34:00,28.2,23.1,29.97,WNW,290,1.0,4.0,81,0.00,,,0.00,Wunderground v.1.15,2013-01-13 00:34:00,
2013-01-12 18:35:00,28.2,23.1,29.98,WNW,290,1.0,4.0,81,0.00,,,0.00,Wunderground v.1.15,2013-01-13 00:35:00,
2013-01-12 18:37:00,28.1,22.7,29.98,WNW,290,1.0,4.0,80,0.00,,,0.00,Wunderground v.1.15,2013-01-13 00:37:00,
2013-01-12 18:39:00,28.1,22.7,29.98,WNW,289,1.0,4.0,80,0.00,,,0.00,Wunderground v.1.15,2013-01-13 00:39:00,
2013-01-12 18:41:00,28.1,23.0,29.98,NNW,334,2.0,5.0,81,0.00,,,0.00,Wunderground v.1.15,2013-01-13 00:41:00,
2013-01-12 18:43:00,28.1,23.0,29.98,NW,315,2.0,6.0,81,0.00,,,0.00,Wunderground v.1.15,2013-01-13 00:43:00,
2013-01-12 18:45:00,28.1,23.0,29.98,NW,323,3.0,6.0,81,0.00,,,0.00,Wunderground v.1.15,2013-01-13 00:45:00,
2013-01-12 18:47:00,28.1,23.0,29.98,NW,323,3.0,6.0,81,0.00,,,0.00,Wunderground v.1.15,2013-01-13 00:47:00,
2013-01-12 18:48:00,28.0,23.2,29.98,NW,322,3.0,6.0,82,0.00,,,0.00,Wunderground v.1.15,2013-01-13 00:48:00,
2013-01-12 18:51:00,28.0,22.9,29.98,NW,321,3.0,5.0,81,0.00,,,0.00,Wunderground v.1.15,2013-01-13 00:51:00,
2013-01-12 18:53:00,27.9,22.5,29.99,NW,321,3.0,5.0,80,0.00,,,0.00,Wunderground v.1.15,2013-01-13 00:53:00,
2013-01-12 18:54:00,27.8,22.4,29.99,WNW,301,2.0,5.0,80,0.00,,,0.00,Wunderground v.1.15,2013-01-13 00:54:00,
2013-01-12 18:58:00,27.7,22.6,30.00,NW,304,2.0,5.0,81,0.00,,,0.00,Wunderground v.1.15,2013-01-13 00:58:00,
2013-01-12 19:01:00,27.6,22.5,30.00,WNW,301,2.0,2.0,81,0.00,,,0.00,Wunderground v.1.15,2013-01-13 01:01:00,
2013-01-12 19:03:00,27.5,22.1,30.00,WNW,302,2.0,2.0,80,0.00,,,0.00,Wunderground v.1.15,2013-01-13 01:03:00,
2013-01-12 19:04:00,27.5,22.1,30.00,WNW,302,2.0,2.0,80,0.00,,,0.00,Wunderground v.1.15,2013-01-13 01:04:00,
2013-01-12 19:05:00,27.5,21.8,30.00,WNW,301,1.0,2.0,79,0.00,,,0.00,Wunderground v.1.15,2013-01-13 01:05:00,
2013-01-12 19:06:00,27.4,21.7,30.00,WNW,300,2.0,2.0,79,0.00,,,0.00,Wunderground v.1.15,2013-01-13 01:06:00,
2013-01-12 19:09:00,27.4,21.7,30.01,NW,304,2.0,2.0,79,0.00,,,0.00,Wunderground v.1.15,2013-01-13 01:09:00,
2013-01-12 19:10:00,27.3,21.6,30.01,NW,304,1.0,1.0,79,0.00,,,0.00,Wunderground v.1.15,2013-01-13 01:10:00,
2013-01-12 19:12:00,27.3,21.6,30.02,WSW,249,2.0,4.0,79,0.00,,,0.00,Wunderground v.1.15,2013-01-13 01:12:00,
2013-01-12 19:14:00,27.2,21.5,30.02,WSW,252,2.0,4.0,79,0.00,,,0.00,Wunderground v.1.15,2013-01-13 01:14:00,
2013-01-12 19:18:00,27.2,21.5,30.02,West,280,2.0,4.0,79,0.00,,,0.00,Wunderground v.1.15,2013-01-13 01:18:00,
2013-01-12 19:19:00,27.2,21.5,30.02,West,280,2.0,4.0,79,0.00,,,0.00,Wunderground v.1.15,2013-01-13 01:19:00,
2013-01-12 19:21:00,27.1,21.2,30.02,NW,307,3.0,3.0,78,0.00,,,0.00,Wunderground v.1.15,2013-01-13 01:21:00,
2013-01-12 19:23:00,27.0,21.1,30.02,NW,304,3.0,3.0,78,0.00,,,0.00,Wunderground v.1.15,2013-01-13 01:23:00,
2013-01-12 19:24:00,27.0,21.4,30.02,NW,304,3.0,3.0,79,0.00,,,0.00,Wunderground v.1.15,2013-01-13 01:24:00,
2013-01-12 19:25:00,27.0,21.4,30.02,NW,304,2.0,3.0,79,0.00,,,0.00,Wunderground v.1.15,2013-01-13 01:25:00,
2013-01-12 19:29:00,27.0,21.7,30.02,WNW,284,2.0,4.0,80,0.00,,,0.00,Wunderground v.1.15,2013-01-13 01:29:00,
2013-01-12 19:31:00,26.9,21.6,30.03,West,275,2.0,4.0,80,0.00,,,0.00,Wunderground v.1.15,2013-01-13 01:31:00,
2013-01-12 19:32:00,26.9,21.6,30.03,WSW,250,2.0,4.0,80,0.00,,,0.00,Wunderground v.1.15,2013-01-13 01:32:00,
2013-01-12 19:37:00,26.8,21.5,30.03,WSW,252,2.0,4.0,80,0.00,,,0.00,Wunderground v.1.15,2013-01-13 01:37:00,
2013-01-12 19:38:00,26.7,21.4,30.03,WSW,254,2.0,4.0,80,0.00,,,0.00,Wunderground v.1.15,2013-01-13 01:38:00,
2013-01-12 19:40:00,26.7,21.4,30.03,WSW,258,2.0,3.0,80,0.00,,,0.00,Wunderground v.1.15,2013-01-13 01:40:00,
2013-01-12 19:41:00,26.7,21.4,30.03,WSW,258,2.0,3.0,80,0.00,,,0.00,Wunderground v.1.15,2013-01-13 01:41:00,
2013-01-12 19:44:00,26.6,21.6,30.02,West,279,2.0,3.0,81,0.00,,,0.00,Wunderground v.1.15,2013-01-13 01:44:00,
2013-01-12 19:45:00,26.6,21.6,30.02,WNW,285,2.0,3.0,81,0.00,,,0.00,Wunderground v.1.15,2013-01-13 01:45:00,
2013-01-12 19:46:00,26.5,21.5,30.02,WNW,285,2.0,3.0,81,0.00,,,0.00,Wunderground v.1.15,2013-01-13 01:46:00,
2013-01-12 19:51:00,26.5,21.2,30.02,WNW,300,2.0,4.0,80,0.00,,,0.00,Wunderground v.1.15,2013-01-13 01:51:00,
2013-01-12 19:52:00,26.5,21.2,30.02,WNW,299,3.0,6.0,80,0.00,,,0.00,Wunderground v.1.15,2013-01-13 01:52:00,
2013-01-12 19:54:00,26.5,21.2,30.02,NW,324,3.0,6.0,80,0.00,,,0.00,Wunderground v.1.15,2013-01-13 01:54:00,
2013-01-12 19:55:00,26.4,21.1,30.02,NNW,343,3.0,6.0,80,0.00,,,0.00,Wunderground v.1.15,2013-01-13 01:55:00,
2013-01-12 19:56:00,26.5,21.2,30.02,NNW,333,3.0,6.0,80,0.00,,,0.00,Wunderground v.1.15,2013-01-13 01:56:00,
2013-01-12 19:58:00,26.4,21.4,30.02,NNW,336,3.0,6.0,81,0.00,,,0.00,Wunderground v.1.15,2013-01-13 01:58:00,
2013-01-12 19:59:00,26.4,21.4,30.02,NNW,336,3.0,6.0,81,0.00,,,0.00,Wunderground v.1.15,2013-01-13 01:59:00,
2013-01-12 20:02:00,26.4,21.4,30.02,NNW,335,3.0,3.0,81,0.00,,,0.00,Wunderground v.1.15,2013-01-13 02:02:00,
2013-01-12 20:05:00,26.4,21.4,30.02,NNW,338,2.0,3.0,81,0.00,,,0.00,Wunderground v.1.15,2013-01-13 02:05:00,
2013-01-12 20:06:00,26.4,21.4,30.02,NNW,338,2.0,3.0,81,0.00,,,0.00,Wunderground v.1.15,2013-01-13 02:06:00,
2013-01-12 20:08:00,26.4,21.4,30.02,NNW,337,2.0,4.0,81,0.00,,,0.00,Wunderground v.1.15,2013-01-13 02:08:00,
2013-01-12 20:10:00,26.3,21.3,30.02,NNW,333,3.0,3.0,81,0.00,,,0.00,Wunderground v.1.15,2013-01-13 02:10:00,
2013-01-12 20:11:00,26.3,21.3,30.02,NNW,333,3.0,3.0,81,0.00,,,0.00,Wunderground v.1.15,2013-01-13 02:11:00,
2013-01-12 20:12:00,26.3,21.3,30.02,NNW,329,3.0,7.0,81,0.00,,,0.00,Wunderground v.1.15,2013-01-13 02:12:00,
2013-01-12 20:15:00,26.3,21.0,30.01,NW,315,3.0,7.0,80,0.00,,,0.00,Wunderground v.1.15,2013-01-13 02:15:00,
2013-01-12 20:18:00,26.3,21.0,30.01,NW,324,4.0,7.0,80,0.00,,,0.00,Wunderground v.1.15,2013-01-13 02:18:00,
2013-01-12 20:20:00,26.3,21.0,30.01,NNW,341,4.0,4.0,80,0.00,,,0.00,Wunderground v.1.15,2013-01-13 02:20:00,
2013-01-12 20:21:00,26.3,21.0,30.01,NNW,340,4.0,4.0,80,0.00,,,0.00,Wunderground v.1.15,2013-01-13 02:21:00,
2013-01-12 20:23:00,26.3,21.0,30.01,NNW,331,3.0,6.0,80,0.00,,,0.00,Wunderground v.1.15,2013-01-13 02:23:00,
2013-01-12 20:27:00,26.3,21.0,30.01,WNW,292,3.0,6.0,80,0.00,,,0.00,Wunderground v.1.15,2013-01-13 02:27:00,
2013-01-12 20:28:00,26.3,21.0,30.02,WNW,296,3.0,6.0,80,0.00,,,0.00,Wunderground v.1.15,2013-01-13 02:28:00,
2013-01-12 20:31:00,26.4,20.8,30.01,WNW,298,3.0,7.0,79,0.00,,,0.00,Wunderground v.1.15,2013-01-13 02:31:00,
2013-01-12 20:36:00,26.4,20.8,30.01,NW,315,4.0,7.0,79,0.00,,,0.00,Wunderground v.1.15,2013-01-13 02:36:00,
2013-01-12 20:37:00,26.4,20.8,30.01,NNW,328,4.0,7.0,79,0.00,,,0.00,Wunderground v.1.15,2013-01-13 02:37:00,
2013-01-12 20:39:00,26.4,21.1,30.00,NW,321,4.0,7.0,80,0.00,,,0.00,Wunderground v.1.15,2013-01-13 02:39:00,
2013-01-12 20:42:00,26.4,20.8,30.00,NNW,342,4.0,8.0,79,0.00,,,0.00,Wunderground v.1.15,2013-01-13 02:42:00,
2013-01-12 20:43:00,26.4,20.8,30.00,NW,320,4.0,8.0,79,0.00,,,0.00,Wunderground v.1.15,2013-01-13 02:43:00,
2013-01-12 20:45:00,26.4,20.8,30.00,NW,325,5.0,9.0,79,0.00,,,0.00,Wunderground v.1.15,2013-01-13 02:45:00,
2013-01-12 20:48:00,26.4,20.8,29.99,NNW,330,6.0,9.0,79,0.00,,,0.00,Wunderground v.1.15,2013-01-13 02:48:00,
2013-01-12 20:50:00,26.3,20.7,29.99,NNW,332,5.0,5.0,79,0.00,,,0.00,Wunderground v.1.15,2013-01-13 02:50:00,
2013-01-12 20:51:00,26.3,20.7,29.99,NNW,336,6.0,10.0,79,0.00,,,0.00,Wunderground v.1.15,2013-01-13 02:51:00,
2013-01-12 20:52:00,26.3,20.7,29.98,NW,306,6.0,10.0,79,0.00,,,0.00,Wunderground v.1.15,2013-01-13 02:52:00,
2013-01-12 20:55:00,26.3,20.4,29.99,NNW,343,5.0,10.0,78,0.00,,,0.00,Wunderground v.1.15,2013-01-13 02:55:00,
2013-01-12 20:56:00,26.3,20.4,29.99,NNW,342,5.0,10.0,78,0.00,,,0.00,Wunderground v.1.15,2013-01-13 02:56:00,
2013-01-12 20:59:00,26.3,20.7,29.99,NNW,328,5.0,10.0,79,0.00,,,0.00,Wunderground v.1.15,2013-01-13 02:59:00,
2013-01-12 21:00:00,26.3,20.7,29.99,NNW,327,5.0,5.0,79,0.00,,,0.00,Wunderground v.1.15,2013-01-13 03:00:00,
2013-01-12 21:03:00,26.3,21.0,29.99,NW,320,5.0,6.0,80,0.00,,,0.00,Wunderground v.1.15,2013-01-13 03:03:00,
2013-01-12 21:05:00,26.2,20.9,29.99,North,355,5.0,10.0,80,0.00,,,0.00,Wunderground v.1.15,2013-01-13 03:05:00,
2013-01-12 21:06:00,26.3,21.0,29.99,NW,313,6.0,10.0,80,0.00,,,0.00,Wunderground v.1.15,2013-01-13 03:06:00,
2013-01-12 21:07:00,26.2,20.6,29.99,NW,325,6.0,10.0,79,0.00,,,0.00,Wunderground v.1.15,2013-01-13 03:07:00,
2013-01-12 21:08:00,26.2,20.6,29.99,NW,325,6.0,10.0,79,0.00,,,0.00,Wunderground v.1.15,2013-01-13 03:08:00,
2013-01-12 21:12:00,26.1,20.5,29.98,NNW,328,7.0,7.0,79,0.00,,,0.00,Wunderground v.1.15,2013-01-13 03:12:00,
2013-01-12 21:13:00,26.1,20.5,29.98,NNW,333,7.0,7.0,79,0.00,,,0.00,Wunderground v.1.15,2013-01-13 03:13:00,
2013-01-12 21:14:00,26.1,20.8,29.97,NNW,328,7.0,7.0,80,0.00,,,0.00,Wunderground v.1.15,2013-01-13 03:14:00,
2013-01-12 21:19:00,26.1,20.8,29.97,NNW,333,5.0,13.0,80,0.00,,,0.00,Wunderground v.1.15,2013-01-13 03:19:00,
2013-01-12 21:21:00,26.1,20.5,29.96,NNW,336,6.0,7.0,79,0.00,,,0.00,Wunderground v.1.15,2013-01-13 03:21:00,
2013-01-12 21:22:00,26.0,20.1,29.96,WNW,300,6.0,8.0,78,0.00,,,0.00,Wunderground v.1.15,2013-01-13 03:22:00,
2013-01-12 21:24:00,26.0,20.1,29.95,NW,325,7.0,13.0,78,0.00,,,0.00,Wunderground v.1.15,2013-01-13 03:24:00,
2013-01-12 21:25:00,25.9,20.0,29.95,NNW,341,7.0,13.0,78,0.00,,,0.00,Wunderground v.1.15,2013-01-13 03:25:00,
2013-01-12 21:28:00,25.8,19.9,29.95,NNW,336,8.0,13.0,78,0.00,,,0.00,Wunderground v.1.15,2013-01-13 03:28:00,
2013-01-12 21:29:00,25.8,20.2,29.95,NW,313,8.0,13.0,79,0.00,,,0.00,Wunderground v.1.15,2013-01-13 03:29:00,
2013-01-12 21:30:00,25.8,20.2,29.95,NNW,344,7.0,7.0,79,0.00,,,0.00,Wunderground v.1.15,2013-01-13 03:30:00,
2013-01-12 21:33:00,25.7,20.4,29.95,NNW,327,7.0,7.0,80,0.00,,,0.00,Wunderground v.1.15,2013-01-13 03:33:00,
2013-01-12 21:35:00,25.7,20.7,29.94,NNW,343,7.0,9.0,81,0.00,,,0.00,Wunderground v.1.15,2013-01-13 03:35:00,
2013-01-12 21:37:00,25.7,20.7,29.94,NNW,340,7.0,10.0,81,0.00,,,0.00,Wunderground v.1.15,2013-01-13 03:37:00,
2013-01-12 21:41:00,25.5,20.5,29.94,NNW,331,7.0,7.0,81,0.00,,,0.00,Wunderground v.1.15,2013-01-13 03:41:00,
2013-01-12 21:42:00,25.5,20.8,29.94,North,5,7.0,10.0,82,0.00,,,0.00,Wunderground v.1.15,2013-01-13 03:42:00,
2013-01-12 21:44:00,25.5,20.8,29.94,NNW,331,7.0,11.0,82,0.00,,,0.00,Wunderground v.1.15,2013-01-13 03:44:00,
2013-01-12 21:46:00,25.4,20.7,29.94,NNW,348,8.0,11.0,82,0.00,,,0.00,Wunderground v.1.15,2013-01-13 03:46:00,
2013-01-12 21:49:00,25.3,20.6,29.93,NNW,348,7.0,11.0,82,0.00,,,0.00,Wunderground v.1.15,2013-01-13 03:49:00,
2013-01-12 21:50:00,25.3,20.6,29.93,NNW,345,7.0,7.0,82,0.00,,,0.00,Wunderground v.1.15,2013-01-13 03:50:00,
2013-01-12 21:52:00,25.2,20.5,29.93,NNW,342,7.0,7.0,82,0.00,,,0.00,Wunderground v.1.15,2013-01-13 03:52:00,
2013-01-12 21:55:00,25.1,20.4,29.93,NNW,346,7.0,7.0,82,0.00,,,0.00,Wunderground v.1.15,2013-01-13 03:55:00,
2013-01-12 21:57:00,25.1,20.7,29.93,North,355,6.0,7.0,83,0.00,,,0.00,Wunderground v.1.15,2013-01-13 03:57:00,
2013-01-12 22:00:00,25.1,20.7,29.93,NNW,342,7.0,7.0,83,0.00,,,0.00,Wunderground v.1.15,2013-01-13 04:00:00,
2013-01-12 22:01:00,25.0,20.6,29.93,NNW,329,7.0,12.0,83,0.00,,,0.00,Wunderground v.1.15,2013-01-13 04:01:00,
2013-01-12 22:03:00,25.0,20.8,29.93,NNW,340,7.0,12.0,84,0.00,,,0.00,Wunderground v.1.15,2013-01-13 04:03:00,
2013-01-12 22:05:00,24.9,20.8,29.94,North,355,7.0,12.0,84,0.00,,,0.00,Wunderground v.1.15,2013-01-13 04:05:00,
2013-01-12 22:09:00,24.8,20.9,29.94,NW,315,7.0,13.0,85,0.00,,,0.00,Wunderground v.1.15,2013-01-13 04:09:00,
2013-01-12 22:10:00,24.8,20.9,29.94,NNW,340,7.0,7.0,85,0.00,,,0.00,Wunderground v.1.15,2013-01-13 04:10:00,
2013-01-12 22:13:00,24.7,21.1,29.94,North,360,6.0,7.0,86,0.00,,,0.00,Wunderground v.1.15,2013-01-13 04:13:00,
2013-01-12 22:16:00,24.6,21.3,29.94,NNW,332,6.0,7.0,87,0.00,,,0.00,Wunderground v.1.15,2013-01-13 04:16:00,
2013-01-12 22:18:00,24.5,21.2,29.94,North,360,6.0,11.0,87,0.00,,,0.00,Wunderground v.1.15,2013-01-13 04:18:00,
2013-01-12 22:21:00,24.5,21.2,29.94,NNW,333,6.0,6.0,87,0.00,,,0.00,Wunderground v.1.15,2013-01-13 04:21:00,
2013-01-12 22:22:00,24.4,21.1,29.94,NNW,344,6.0,6.0,87,0.00,,,0.00,Wunderground v.1.15,2013-01-13 04:22:00,
2013-01-12 22:23:00,24.4,21.1,29.94,North,349,6.0,6.0,87,0.00,,,0.00,Wunderground v.1.15,2013-01-13 04:23:00,
2013-01-12 22:24:00,24.4,21.1,29.94,NW,325,6.0,7.0,87,0.00,,,0.00,Wunderground v.1.15,2013-01-13 04:24:00,
2013-01-12 22:26:00,24.3,21.3,29.94,NNW,336,6.0,9.0,88,0.00,,,0.00,Wunderground v.1.15,2013-01-13 04:26:00,
2013-01-12 22:29:00,24.3,21.3,29.94,NNW,346,6.0,10.0,88,0.00,,,0.00,Wunderground v.1.15,2013-01-13 04:29:00,
2013-01-12 22:30:00,24.2,21.2,29.94,NNW,340,6.0,6.0,88,0.00,,,0.00,Wunderground v.1.15,2013-01-13 04:30:00,
2013-01-12 22:32:00,24.2,21.2,29.95,NW,324,6.0,7.0,88,0.00,,,0.00,Wunderground v.1.15,2013-01-13 04:32:00,
2013-01-12 22:33:00,24.2,21.2,29.95,NNW,335,6.0,7.0,88,0.00,,,0.00,Wunderground v.1.15,2013-01-13 04:33:00,
2013-01-12 22:34:00,24.1,21.1,29.95,NNW,344,6.0,12.0,88,0.00,,,0.00,Wunderground v.1.15,2013-01-13 04:34:00,
2013-01-12 22:37:00,24.0,21.0,29.95,WNW,303,6.0,12.0,88,0.00,,,0.00,Wunderground v.1.15,2013-01-13 04:37:00,
2013-01-12 22:38:00,24.0,21.0,29.95,NNW,335,6.0,12.0,88,0.00,,,0.00,Wunderground v.1.15,2013-01-13 04:38:00,
2013-01-12 22:41:00,23.9,20.9,29.96,NNW,343,6.0,6.0,88,0.00,,,0.00,Wunderground v.1.15,2013-01-13 04:41:00,
2013-01-12 22:42:00,23.9,20.9,29.96,NNW,344,5.0,6.0,88,0.00,,,0.00,Wunderground v.1.15,2013-01-13 04:42:00,
2013-01-12 22:45:00,23.9,20.9,29.97,NNW,343,5.0,7.0,88,0.00,,,0.00,Wunderground v.1.15,2013-01-13 04:45:00,
2013-01-12 22:47:00,23.8,20.8,29.96,NW,325,5.0,7.0,88,0.00,,,0.00,Wunderground v.1.15,2013-01-13 04:47:00,
2013-01-12 22:48:00,23.8,20.8,29.96,NW,326,5.0,7.0,88,0.00,,,0.00,Wunderground v.1.15,2013-01-13 04:48:00,
2013-01-12 22:50:00,23.8,21.0,29.96,NW,317,5.0,7.0,89,0.00,,,0.00,Wunderground v.1.15,2013-01-13 04:50:00,
2013-01-12 22:53:00,23.8,21.0,29.96,NNW,336,5.0,7.0,89,0.00,,,0.00,Wunderground v.1.15,2013-01-13 04:53:00,
2013-01-12 22:55:00,23.8,21.0,29.96,NNW,342,5.0,7.0,89,0.00,,,0.00,Wunderground v.1.15,2013-01-13 04:55:00,
2013-01-12 22:57:00,23.8,21.0,29.96,NW,319,4.0,13.0,89,0.00,,,0.00,Wunderground v.1.15,2013-01-13 04:57:00,
2013-01-12 22:58:00,23.7,20.9,29.96,NNW,329,5.0,13.0,89,0.00,,,0.00,Wunderground v.1.15,2013-01-13 04:58:00,
2013-01-12 23:03:00,23.5,20.7,29.96,NNW,338,6.0,11.0,89,0.00,,,0.00,Wunderground v.1.15,2013-01-13 05:03:00,
2013-01-12 23:05:00,23.4,20.6,29.97,NNW,337,7.0,11.0,89,0.00,,,0.00,Wunderground v.1.15,2013-01-13 05:05:00,
2013-01-12 23:06:00,23.4,20.6,29.97,NNW,345,7.0,11.0,89,0.00,,,0.00,Wunderground v.1.15,2013-01-13 05:06:00,
2013-01-12 23:09:00,23.3,20.5,29.96,NNW,347,6.0,13.0,89,0.00,,,0.00,Wunderground v.1.15,2013-01-13 05:09:00,
2013-01-12 23:11:00,23.2,20.4,29.96,NNW,348,7.0,7.0,89,0.00,,,0.00,Wunderground v.1.15,2013-01-13 05:11:00,
2013-01-12 23:12:00,23.1,20.3,29.97,NNW,327,6.0,7.0,89,0.00,,,0.00,Wunderground v.1.15,2013-01-13 05:12:00,
2013-01-12 23:14:00,23.1,20.3,29.97,NW,317,6.0,7.0,89,0.00,,,0.00,Wunderground v.1.15,2013-01-13 05:14:00,
2013-01-12 23:16:00,23.1,20.3,29.97,NNW,335,6.0,7.0,89,0.00,,,0.00,Wunderground v.1.15,2013-01-13 05:16:00,
2013-01-12 23:18:00,23.0,20.2,29.98,NNW,333,5.0,7.0,89,0.00,,,0.00,Wunderground v.1.15,2013-01-13 05:18:00,
2013-01-12 23:19:00,23.0,20.2,29.98,NW,326,5.0,7.0,89,0.00,,,0.00,Wunderground v.1.15,2013-01-13 05:19:00,
2013-01-12 23:25:00,22.9,20.1,29.98,NNW,335,5.0,10.0,89,0.00,,,0.00,Wunderground v.1.15,2013-01-13 05:25:00,
2013-01-12 23:26:00,22.9,20.1,29.99,NNW,327,5.0,10.0,89,0.00,,,0.00,Wunderground v.1.15,2013-01-13 05:26:00,
2013-01-12 23:28:00,22.9,20.4,29.98,NNW,333,5.0,10.0,90,0.00,,,0.00,Wunderground v.1.15,2013-01-13 05:28:00,
2013-01-12 23:29:00,22.8,20.3,29.98,NW,319,5.0,10.0,90,0.00,,,0.00,Wunderground v.1.15,2013-01-13 05:29:00,
2013-01-12 23:34:00,22.7,20.2,29.97,NW,317,4.0,7.0,90,0.00,,,0.00,Wunderground v.1.15,2013-01-13 05:34:00,
2013-01-12 23:37:00,22.7,20.2,29.96,NNW,342,5.0,9.0,90,0.00,,,0.00,Wunderground v.1.15,2013-01-13 05:37:00,
2013-01-12 23:40:00,22.6,20.1,29.97,NNW,328,5.0,5.0,90,0.00,,,0.00,Wunderground v.1.15,2013-01-13 05:40:00,
2013-01-12 23:41:00,22.6,20.1,29.97,NNW,327,5.0,5.0,90,0.00,,,0.00,Wunderground v.1.15,2013-01-13 05:41:00,
2013-01-12 23:44:00,22.5,20.0,29.97,WNW,303,4.0,10.0,90,0.00,,,0.00,Wunderground v.1.15,2013-01-13 05:44:00,
2013-01-12 23:45:00,22.5,20.0,29.97,NW,322,4.0,10.0,90,0.00,,,0.00,Wunderground v.1.15,2013-01-13 05:45:00,
2013-01-12 23:46:00,22.5,20.0,29.97,NW,312,4.0,11.0,90,0.00,,,0.00,Wunderground v.1.15,2013-01-13 05:46:00,
2013-01-12 23:47:00,22.5,20.0,29.97,WNW,300,5.0,11.0,90,0.00,,,0.00,Wunderground v.1.15,2013-01-13 05:47:00,
2013-01-12 23:51:00,22.4,20.2,29.96,NNW,329,5.0,5.0,91,0.00,,,0.00,Wunderground v.1.15,2013-01-13 05:51:00,
2013-01-12 23:52:00,22.4,20.2,29.96,NNW,338,4.0,5.0,91,0.00,,,0.00,Wunderground v.1.15,2013-01-13 05:52:00,
2013-01-12 23:53:00,22.4,20.2,29.96,WNW,297,5.0,5.0,91,0.00,,,0.00,Wunderground v.1.15,2013-01-13 05:53:00,
2013-01-12 23:54:00,22.4,20.2,29.97,NW,311,5.0,5.0,91,0.00,,,0.00,Wunderground v.1.15,2013-01-13 05:54:00,
2013-01-12 23:59:00,22.2,20.0,29.97,NW,326,4.0,5.0,91,0.00,,,0.00,Wunderground v.1.15,2013-01-13 05:59:00,